FW3681 Weather Reports


Display with metric or nautical units.
time (UTC)temp
F
wind
direction
speed
MPH
gust
MPH
rain 1hr
in
rain 24hr
in
rain mn
in
humidity
%
barometer
mb
20260905073600 75 349 0.0 2.0 0.00 0.00 0.00 92 1013.6
20260905073500 75 307 0.0 2.0 0.00 0.00 0.00 92 1013.7
20260905073359 75 323 0.0 2.0 0.00 0.00 0.00 92 1013.6
20260905073259 75 340 0.0 3.0 0.00 0.00 0.00 91 1013.6
20260905073159 75 337 0.0 3.0 0.00 0.00 0.00 92 1013.6
20260905073059 75 310 2.0 3.0 0.00 0.00 0.00 92 1013.6
20260905073003 75 323 2.0 3.0 0.00 0.00 0.00 92 1013.6
20260905072859 75 323 2.0 3.0 0.00 0.00 0.00 91 1013.6
20260905072759 75 342 0.0 3.0 0.00 0.00 0.00 91 1013.6
20260905072659 75 324 0.0 3.0 0.00 0.00 0.00 91 1013.6
20260905072559 75 356 0.0 3.0 0.00 0.00 0.00 91 1013.6
20260905072500 75 24 2.0 3.0 0.00 0.00 0.00 91 1013.6
20260905072359 75 340 0.0 3.0 0.00 0.00 0.00 91 1013.6
20260905072259 75 1 2.0 3.0 0.00 0.00 0.00 91 1013.6
20260905072158 75 324 2.0 3.0 0.00 0.00 0.00 91 1013.5
20260905072059 75 349 2.0 4.0 0.00 0.00 0.00 91 1013.5
20260905072001 75 345 0.0 4.0 0.00 0.00 0.00 91 1013.5
20260905071859 75 349 0.0 4.0 0.00 0.00 0.00 91 1013.5
20260905071759 75 337 0.0 4.0 0.00 0.00 0.00 91 1013.5
20260905071659 75 356 0.0 4.0 0.00 0.00 0.00 91 1013.5
20260905071500 75 335 0.0 4.0 0.00 0.00 0.00 91 1013.5
20260905071400 75 96 0.0 4.0 0.00 0.00 0.00 91 1013.5
20260905071303 75 83 1.0 4.0 0.00 0.00 0.00 91 1013.5
20260905071159 75 20 3.0 3.0 0.00 0.00 0.00 91 1013.5
20260905071100 75 323 0.0 3.0 0.00 0.00 0.00 91 1013.5
20260905071002 75 323 2.0 3.0 0.00 0.00 0.00 91 1013.5
20260905070859 75 22 0.0 2.0 0.00 0.00 0.00 91 1013.5
20260905070800 75 127 0.0 2.0 0.00 0.00 0.00 91 1013.5
20260905070659 75 309 0.0 2.0 0.00 0.00 0.00 91 1013.5
20260905070559 75 326 0.0 2.0 0.00 0.00 0.00 91 1013.5
20260905070501 75 356 0.0 2.0 0.00 0.00 0.00 91 1013.4
20260905070359 75 340 0.0 2.0 0.00 0.00 0.00 91 1013.5
20260905070300 75 328 0.0 3.0 0.00 0.00 0.00 91 1013.4
20260905070159 75 17 0.0 3.0 0.00 0.00 0.00 91 1013.5
20260905070059 75 41 0.0 3.0 0.00 0.00 0.00 91 1013.4
20260905070003 75 328 0.0 3.0 0.00 0.00 0.00 91 1013.3
20260905065858 75 328 0.0 3.0 0.00 0.00 0.00 91 1013.5
20260905065759 75 328 0.0 3.0 0.00 0.00 0.00 91 1013.4
20260905065659 75 321 0.0 3.0 0.00 0.00 0.00 91 1013.5
20260905065558 75 300 0.0 3.0 0.00 0.00 0.00 91 1013.4
20260905065500 75 317 1.0 3.0 0.00 0.00 0.00 91 1013.3
20260905065359 75 340 0.0 2.0 0.00 0.00 0.00 91 1013.3
20260905065301 75 114 0.0 3.0 0.00 0.00 0.00 91 1013.3
20260905065158 75 114 0.0 3.0 0.00 0.00 0.00 91 1013.5
20260905065002 75 309 0.0 3.0 0.00 0.00 0.00 91 1013.3
20260905064858 75 309 0.0 3.0 0.00 0.00 0.00 91 1013.4
20260905064659 75 356 0.0 3.0 0.00 0.00 0.00 91 1013.3
20260905064559 75 356 0.0 3.0 0.00 0.00 0.00 91 1013.3
20260905064501 75 295 0.0 4.0 0.00 0.00 0.00 90 1013.4
20260905064359 75 285 0.0 4.0 0.00 0.00 0.00 91 1013.3
20260905064059 75 311 0.0 4.0 0.00 0.00 0.00 90 1013.4
20260905064003 75 340 0.0 4.0 0.00 0.00 0.00 90 1013.4
20260905063900 75 345 1.0 4.0 0.00 0.00 0.00 90 1013.3
20260905063759 75 323 0.0 4.0 0.00 0.00 0.00 90 1013.4
20260905063600 75 331 2.0 4.0 0.00 0.00 0.00 90 1013.4
20260905063500 75 330 1.0 3.0 0.00 0.00 0.00 90 1013.4
20260905063258 75 293 0.0 3.0 0.00 0.00 0.00 90 1013.4
20260905063158 75 317 1.0 3.0 0.00 0.00 0.00 90 1013.3
20260905063059 75 295 0.0 2.0 0.00 0.00 0.00 90 1013.4
20260905063003 75 314 0.0 2.0 0.00 0.00 0.00 90 1013.4
20260905062859 75 354 0.0 2.0 0.00 0.00 0.00 90 1013.4
20260905062800 75 338 2.0 2.0 0.00 0.00 0.00 90 1013.5
20260905062659 75 305 0.0 2.0 0.00 0.00 0.00 90 1013.6
20260905062559 75 305 0.0 2.0 0.00 0.00 0.00 90 1013.6
20260905062500 75 314 0.0 2.0 0.00 0.00 0.00 90 1013.6
20260905062400 75 309 0.0 2.0 0.00 0.00 0.00 90 1013.6
20260905062058 75 305 0.0 3.0 0.00 0.00 0.00 90 1013.6
20260905062003 75 333 0.0 3.0 0.00 0.00 0.00 90 1013.6
20260905061859 75 351 0.0 3.0 0.00 0.00 0.00 90 1013.5
20260905061659 75 295 0.0 3.0 0.00 0.00 0.00 90 1013.5
20260905061559 75 314 2.0 3.0 0.00 0.00 0.00 90 1013.6
20260905061500 75 278 1.0 3.0 0.00 0.00 0.00 90 1013.6
20260905061359 75 277 0.0 3.0 0.00 0.00 0.00 90 1013.6
20260905061159 75 262 1.0 3.0 0.00 0.00 0.00 90 1013.5
20260905061058 75 302 0.0 3.0 0.00 0.00 0.00 90 1013.6
20260905060859 75 342 2.0 3.0 0.00 0.00 0.00 90 1013.6
20260905060759 75 297 2.0 3.0 0.00 0.00 0.00 90 1013.5
20260905060659 75 295 2.0 3.0 0.00 0.00 0.00 90 1013.6
20260905060600 75 274 0.0 3.0 0.00 0.00 0.00 90 1013.5
20260905060259 75 286 1.0 3.0 0.00 0.00 0.00 90 1013.5
20260905060159 75 305 0.0 3.0 0.00 0.00 0.00 89 1013.5
20260905060059 75 279 0.0 3.0 0.00 0.00 0.00 89 1013.5
20260905055901 75 300 1.0 3.0 0.00 0.00 0.00 90 1013.6
20260905055801 75 284 2.0 3.0 0.00 0.00 0.00 90 1013.6
20260905055701 75 286 2.0 3.0 0.00 0.00 0.00 89 1013.6
20260905055601 75 314 2.0 3.0 0.00 0.00 0.00 90 1013.7
20260905055503 75 284 3.0 3.0 0.00 0.00 0.00 90 1013.6
20260905055401 75 286 3.0 3.0 0.00 0.00 0.00 90 1013.7
20260905055301 75 286 2.0 3.0 0.00 0.00 0.00 90 1013.7
20260905055201 75 279 2.0 3.0 0.00 0.00 0.00 89 1013.7
20260905055101 75 275 1.0 3.0 0.00 0.00 0.00 90 1013.6
20260905055003 75 270 2.0 3.0 0.00 0.00 0.00 90 1013.7
20260905054901 75 282 2.0 3.0 0.00 0.00 0.00 89 1013.7
20260905054801 75 288 0.0 3.0 0.00 0.00 0.00 89 1013.7
20260905054701 75 288 0.0 3.0 0.00 0.00 0.00 89 1013.7
20260905054504 75 317 0.0 3.0 0.00 0.00 0.00 89 1013.8
20260905054200 75 323 2.0 3.0 0.00 0.00 0.00 89 1013.8
20260905054101 75 311 1.0 3.0 0.00 0.00 0.00 89 1013.8
20260905054004 75 290 2.0 3.0 0.00 0.00 0.00 89 1013.8
20260905053701 75 316 1.0 3.0 0.00 0.00 0.00 89 1013.7
20260905053602 75 324 1.0 3.0 0.00 0.00 0.00 89 1013.7
20260905053504 75 340 1.0 3.0 0.00 0.00 0.00 89 1013.7
20260905053401 75 302 1.0 3.0 0.00 0.00 0.00 89 1013.7
20260905053300 75 319 1.0 3.0 0.00 0.00 0.00 89 1013.7
20260905053100 75 302 1.0 3.0 0.00 0.00 0.00 89 1013.6
20260905053004 75 309 1.0 3.0 0.00 0.00 0.00 89 1013.7
20260905052901 75 296 2.0 3.0 0.00 0.00 0.00 89 1013.7
20260905052801 75 281 2.0 3.0 0.00 0.00 0.00 89 1013.7
20260905052701 75 288 0.0 2.0 0.00 0.00 0.00 89 1013.6
20260905052600 75 294 1.0 2.0 0.00 0.00 0.00 89 1013.6
20260905052503 75 309 0.0 3.0 0.00 0.00 0.00 89 1013.6
20260905052401 75 326 0.0 3.0 0.00 0.00 0.00 89 1013.7
20260905052301 75 326 0.0 3.0 0.00 0.00 0.00 89 1013.7
20260905052201 75 300 0.0 3.0 0.00 0.00 0.00 89 1013.7
20260905052101 75 307 1.0 3.0 0.00 0.00 0.00 89 1013.6
20260905052004 75 316 1.0 3.0 0.00 0.00 0.00 89 1013.6
20260905051901 75 302 1.0 3.0 0.00 0.00 0.00 89 1013.6
20260905051800 75 307 2.0 3.0 0.00 0.00 0.00 89 1013.6
20260905051701 75 295 2.0 3.0 0.00 0.00 0.00 89 1013.6
20260905051601 75 307 2.0 3.0 0.00 0.00 0.00 89 1013.6
20260905051401 75 293 2.0 3.0 0.00 0.00 0.00 89 1013.6
20260905051101 75 305 2.0 3.0 0.00 0.00 0.00 89 1013.6
20260905051005 75 302 2.0 3.0 0.00 0.00 0.00 89 1013.6
20260905050900 75 295 2.0 3.0 0.00 0.00 0.00 88 1013.5
20260905050701 75 314 1.0 3.0 0.00 0.00 0.00 88 1013.6
20260905050503 76 295 1.0 3.0 0.00 0.00 0.00 88 1013.7
20260905050401 75 295 1.0 3.0 0.00 0.00 0.00 88 1013.7
20260905050301 76 316 0.0 3.0 0.00 0.00 0.00 88 1013.8
20260905050201 76 295 0.0 3.0 0.00 0.00 0.00 88 1013.8
20260905050006 76 281 2.0 3.0 0.00 0.00 0.00 88 1013.9
20260905045901 76 293 2.0 3.0 0.00 0.00 0.00 88 1014.0
20260905045801 76 280 2.0 4.0 0.00 0.00 0.00 88 1013.9
20260905045701 76 316 2.0 4.0 0.00 0.00 0.00 88 1014.0
20260905045601 76 303 2.0 4.0 0.00 0.00 0.00 88 1014.0
20260905045502 76 314 2.0 4.0 0.00 0.00 0.00 88 1014.0
20260905045402 76 316 2.0 4.0 0.00 0.00 0.00 88 1014.0
20260905045301 76 347 2.0 4.0 0.00 0.00 0.00 88 1014.0
20260905045201 76 340 2.0 4.0 0.00 0.00 0.00 88 1014.0
20260905045101 76 354 2.0 4.0 0.00 0.00 0.00 88 1014.0
20260905045005 76 333 3.0 4.0 0.00 0.00 0.00 88 1014.0
20260905044901 76 340 2.0 3.0 0.00 0.00 0.00 88 1014.0
20260905044701 76 333 2.0 3.0 0.00 0.00 0.00 88 1013.8
20260905044601 76 349 2.0 3.0 0.00 0.00 0.00 88 1013.9
20260905044400 76 333 2.0 3.0 0.00 0.00 0.00 88 1013.8
20260905044301 76 344 2.0 3.0 0.00 0.00 0.00 88 1013.8
20260905044201 76 317 0.0 3.0 0.00 0.00 0.00 88 1013.8
20260905044100 76 311 1.0 3.0 0.00 0.00 0.00 88 1013.8
20260905043801 76 302 1.0 3.0 0.00 0.00 0.00 88 1013.8
20260905043701 76 312 1.0 3.0 0.00 0.00 0.00 88 1013.8
20260905043601 76 321 0.0 3.0 0.00 0.00 0.00 88 1013.8
20260905043504 76 360 2.0 3.0 0.00 0.00 0.00 88 1013.8
20260905043401 76 323 0.0 3.0 0.00 0.00 0.00 88 1013.8
20260905043300 76 331 0.0 3.0 0.00 0.00 0.00 87 1013.8
20260905043201 76 316 1.0 3.0 0.00 0.00 0.00 87 1013.8
20260905043101 76 305 2.0 3.0 0.00 0.00 0.00 87 1013.8
20260905043005 76 302 0.0 3.0 0.00 0.00 0.00 87 1013.9
20260905042900 76 295 0.0 3.0 0.00 0.00 0.00 88 1013.9
20260905042801 76 270 0.0 3.0 0.00 0.00 0.00 88 1014.0
20260905042701 76 312 2.0 3.0 0.00 0.00 0.00 88 1014.0
20260905042602 76 288 2.0 3.0 0.00 0.00 0.00 87 1014.0
20260905042503 76 278 2.0 3.0 0.00 0.00 0.00 87 1014.0
20260905042402 76 283 3.0 3.0 0.00 0.00 0.00 87 1014.0
20260905042200 76 328 1.0 2.0 0.00 0.00 0.00 87 1014.0
20260905042100 76 302 0.0 2.0 0.00 0.00 0.00 87 1014.0
20260905041801 76 307 0.0 3.0 0.00 0.00 0.00 87 1014.1
20260905041701 76 328 0.0 3.0 0.00 0.00 0.00 87 1014.1
20260905041400 76 309 0.0 3.0 0.00 0.00 0.00 87 1014.3
20260905041301 76 307 0.0 3.0 0.00 0.00 0.00 87 1014.2
20260905041201 76 293 1.0 3.0 0.00 0.00 0.00 87 1014.2
20260905041100 76 283 2.0 3.0 0.00 0.00 0.00 87 1014.2
20260905040901 76 333 0.0 3.0 0.00 0.00 0.00 87 1014.3
20260905040700 76 251 0.0 3.0 0.00 0.00 0.00 87 1014.3
20260905040602 76 342 1.0 3.0 0.00 0.00 0.00 87 1014.3
20260905040503 76 279 1.0 3.0 0.00 0.00 0.00 87 1014.3
20260905040401 76 335 2.0 3.0 0.00 0.00 0.00 87 1014.3
20260905040100 76 360 2.0 3.0 0.00 0.00 0.00 87 1014.3
20260905040006 76 347 2.0 3.0 0.00 0.00 0.00 87 1014.3
20260905035902 76 321 2.0 3.0 0.00 0.00 0.00 87 1014.3
20260905035802 76 323 1.0 3.0 0.00 0.00 0.00 87 1014.3
20260905035503 76 323 2.0 3.0 0.00 0.00 0.00 87 1014.3
20260905035202 76 319 0.0 3.0 0.00 0.00 0.00 87 1014.2
20260905035102 76 293 1.0 3.0 0.00 0.00 0.00 87 1014.2
20260905035006 76 304 2.0 3.0 0.00 0.00 0.00 87 1014.2
20260905034901 76 283 3.0 3.0 0.00 0.00 0.00 87 1014.2
20260905034802 76 304 2.0 3.0 0.00 0.00 0.00 87 1014.2
20260905034703 76 333 2.0 3.0 0.00 0.00 0.00 87 1014.2
20260905034505 76 330 2.0 3.0 0.00 0.00 0.00 86 1014.3
20260905034401 76 323 2.0 3.0 0.00 0.00 0.00 86 1014.2
20260905034302 76 1 3.0 3.0 0.00 0.00 0.00 86 1014.3
20260905034202 76 309 0.0 3.0 0.00 0.00 0.00 86 1014.3
20260905033901 76 354 1.0 3.0 0.00 0.00 0.00 86 1014.3
20260905033802 76 312 0.0 3.0 0.00 0.00 0.00 86 1014.3
20260905033702 76 314 0.0 3.0 0.00 0.00 0.00 86 1014.4
20260905033602 76 311 0.0 3.0 0.00 0.00 0.00 86 1014.4
20260905033401 76 273 0.0 3.0 0.00 0.00 0.00 86 1014.5
20260905033302 76 283 1.0 3.0 0.00 0.00 0.00 86 1014.5
20260905033202 76 240 0.0 3.0 0.00 0.00 0.00 86 1014.5
20260905033103 76 240 0.0 3.0 0.00 0.00 0.00 86 1014.5
20260905033006 76 240 0.0 3.0 0.00 0.00 0.00 86 1014.5
20260905032802 76 68 0.0 3.0 0.00 0.00 0.00 86 1014.6
20260905032703 76 333 0.0 3.0 0.00 0.00 0.00 86 1014.6
20260905032502 76 330 0.0 3.0 0.00 0.00 0.00 86 1014.7
20260905032301 76 359 1.0 3.0 0.00 0.00 0.00 86 1014.6
20260905032200 76 358 3.0 3.0 0.00 0.00 0.00 86 1014.7
20260905032101 76 12 0.0 3.0 0.00 0.00 0.00 86 1014.7
20260905031801 77 326 0.0 3.0 0.00 0.00 0.00 86 1014.8
20260905031503 77 15 3.0 3.0 0.00 0.00 0.00 86 1014.8
20260905031400 77 56 2.0 3.0 0.00 0.00 0.00 86 1014.8
20260905031300 77 345 0.0 3.0 0.00 0.00 0.00 86 1015.0
20260905031200 77 345 0.0 3.0 0.00 0.00 0.00 86 1015.0
20260905031100 77 356 0.0 3.0 0.00 0.00 0.00 86 1015.0
20260905030900 77 333 0.0 3.0 0.00 0.00 0.00 86 1015.1
20260905030801 77 12 0.0 2.0 0.00 0.00 0.00 86 1015.1
20260905030700 77 349 0.0 2.0 0.00 0.00 0.00 86 1015.2
20260905030503 77 27 0.0 2.0 0.00 0.00 0.00 86 1015.2
20260905030401 77 43 0.0 2.0 0.00 0.00 0.00 86 1015.2
20260905030302 77 43 0.0 3.0 0.00 0.00 0.00 86 1015.1
20260905030201 77 317 0.0 3.0 0.00 0.00 0.00 85 1015.1
20260905030101 77 317 0.0 3.0 0.00 0.00 0.00 85 1015.1
20260905025901 77 333 0.0 3.0 0.00 0.00 0.00 85 1015.0
20260905025701 77 310 0.0 3.0 0.00 0.00 0.00 85 1015.0
20260905025601 77 305 2.0 3.0 0.00 0.00 0.00 85 1015.0
20260905025504 77 296 2.0 3.0 0.00 0.00 0.00 85 1015.1
20260905025400 77 293 0.0 3.0 0.00 0.00 0.00 85 1015.1
20260905025301 77 307 1.0 3.0 0.00 0.00 0.00 85 1015.2
20260905025201 77 301 2.0 2.0 0.00 0.00 0.00 85 1015.2
20260905025100 77 331 0.0 2.0 0.00 0.00 0.00 85 1015.2
20260905024801 77 307 1.0 2.0 0.00 0.00 0.00 84 1015.4
20260905024700 77 314 2.0 2.0 0.00 0.00 0.00 84 1015.1
20260905024601 77 286 2.0 2.0 0.00 0.00 0.00 84 1015.1
20260905024503 77 307 1.0 2.0 0.00 0.00 0.00 84 1015.1
20260905024401 77 302 0.0 2.0 0.00 0.00 0.00 84 1015.2
20260905024102 77 324 2.0 2.0 0.00 0.00 0.00 84 1015.1
20260905024004 77 309 2.0 3.0 0.00 0.00 0.00 84 1015.1
20260905023800 77 326 0.0 3.0 0.00 0.00 0.00 84 1015.0
20260905023701 77 323 2.0 3.0 0.00 0.00 0.00 84 1015.1
20260905023401 77 323 2.0 3.0 0.00 0.00 0.00 84 1015.0
20260905023301 77 319 1.0 3.0 0.00 0.00 0.00 84 1015.0
20260905023201 77 333 0.0 3.0 0.00 0.00 0.00 84 1015.1
20260905023100 77 323 2.0 3.0 0.00 0.00 0.00 84 1015.1
20260905023004 77 351 2.0 3.0 0.00 0.00 0.00 84 1015.0
20260905022901 77 354 1.0 3.0 0.00 0.00 0.00 84 1015.1
20260905022800 77 303 1.0 3.0 0.00 0.00 0.00 84 1015.0
20260905022701 77 354 0.0 3.0 0.00 0.00 0.00 84 1015.0
20260905022601 77 300 0.0 3.0 0.00 0.00 0.00 83 1015.0
20260905022503 77 314 0.0 3.0 0.00 0.00 0.00 83 1015.0
20260905022400 77 317 1.0 3.0 0.00 0.00 0.00 83 1015.0
20260905022301 77 283 2.0 3.0 0.00 0.00 0.00 83 1015.0
20260905022101 77 296 2.0 3.0 0.00 0.00 0.00 83 1015.0
20260905022004 77 282 2.0 3.0 0.00 0.00 0.00 83 1015.0
20260905021901 77 293 2.0 3.0 0.00 0.00 0.00 83 1015.0
20260905021701 77 295 2.0 3.0 0.00 0.00 0.00 83 1015.0
20260905021601 77 281 2.0 3.0 0.00 0.00 0.00 83 1015.0
20260905021504 77 302 2.0 3.0 0.00 0.00 0.00 83 1015.2
20260905021401 77 301 2.0 3.0 0.00 0.00 0.00 83 1015.1
20260905021301 77 314 1.0 3.0 0.00 0.00 0.00 83 1015.1
20260905021200 77 303 1.0 3.0 0.00 0.00 0.00 83 1015.0
20260905021101 77 310 2.0 3.0 0.00 0.00 0.00 83 1015.0
20260905021004 77 295 2.0 3.0 0.00 0.00 0.00 83 1015.0
20260905020901 77 276 2.0 3.0 0.00 0.00 0.00 83 1015.0
20260905020801 77 314 2.0 3.0 0.00 0.00 0.00 83 1015.0
20260905020601 77 335 2.0 3.0 0.00 0.00 0.00 83 1014.9
20260905020502 77 323 2.0 3.0 0.00 0.00 0.00 83 1014.8
20260905020402 77 326 2.0 3.0 0.00 0.00 0.00 83 1015.0
20260905020300 77 328 2.0 3.0 0.00 0.00 0.00 83 1014.9
20260905020200 77 312 0.0 3.0 0.00 0.00 0.00 83 1015.0
20260905020008 77 328 2.0 3.0 0.00 0.00 0.00 83 1014.9
20260905015902 77 324 2.0 3.0 0.00 0.00 0.00 83 1014.8
20260905015803 77 311 2.0 3.0 0.00 0.00 0.00 83 1014.8
20260905015703 77 316 3.0 3.0 0.00 0.00 0.00 83 1014.8
20260905015602 77 330 2.0 3.0 0.00 0.00 0.00 83 1014.8
20260905015504 77 331 2.0 3.0 0.00 0.00 0.00 83 1014.8
20260905015402 77 311 3.0 3.0 0.00 0.00 0.00 83 1014.8
20260905015301 77 347 3.0 3.0 0.00 0.00 0.00 83 1014.7
20260905015203 77 326 2.0 3.0 0.00 0.00 0.00 83 1014.8
20260905015102 77 331 1.0 3.0 0.00 0.00 0.00 83 1014.8
20260905015006 77 333 2.0 3.0 0.00 0.00 0.00 83 1014.8
20260905014903 77 333 2.0 3.0 0.00 0.00 0.00 83 1014.8
20260905014802 77 326 2.0 3.0 0.00 0.00 0.00 83 1014.8
20260905014702 77 335 2.0 3.0 0.00 0.00 0.00 84 1014.8
20260905014602 77 295 2.0 3.0 0.00 0.00 0.00 84 1014.9
20260905014402 77 311 1.0 3.0 0.00 0.00 0.00 84 1014.9
20260905014302 77 335 1.0 3.0 0.00 0.00 0.00 84 1015.0
20260905014103 77 347 1.0 3.0 0.00 0.00 0.00 84 1015.0
20260905014005 77 304 1.0 3.0 0.00 0.00 0.00 84 1015.0
20260905013902 77 319 1.0 3.0 0.00 0.00 0.00 84 1014.7
20260905013802 77 333 1.0 3.0 0.00 0.00 0.00 84 1014.8
20260905013702 77 8 0.0 3.0 0.00 0.00 0.00 84 1014.8
20260905013601 77 319 0.0 3.0 0.00 0.00 0.00 84 1014.8
20260905013504 77 326 0.0 3.0 0.00 0.00 0.00 84 1014.8
20260905013401 77 316 0.0 3.0 0.00 0.00 0.00 84 1014.7
20260905013301 77 285 1.0 3.0 0.00 0.00 0.00 84 1014.7
20260905013203 77 307 2.0 3.0 0.00 0.00 0.00 84 1014.7
20260905013103 77 319 1.0 3.0 0.00 0.00 0.00 84 1014.8
20260905013005 77 296 2.0 3.0 0.00 0.00 0.00 84 1014.8
20260905012901 77 295 1.0 3.0 0.00 0.00 0.00 84 1014.9
20260905012803 77 296 2.0 3.0 0.00 0.00 0.00 84 1014.9
20260905012702 77 293 2.0 3.0 0.00 0.00 0.00 84 1015.1
20260905012602 77 316 2.0 3.0 0.00 0.00 0.00 84 1015.0
20260905012504 77 307 1.0 3.0 0.00 0.00 0.00 84 1015.1
20260905012403 77 316 2.0 3.0 0.00 0.00 0.00 84 1015.1
20260905012301 77 316 2.0 3.0 0.00 0.00 0.00 84 1015.1
20260905012202 77 301 2.0 3.0 0.00 0.00 0.00 84 1015.1
20260905012101 77 302 2.0 3.0 0.00 0.00 0.00 84 1015.0
20260905012005 77 319 2.0 3.0 0.00 0.00 0.00 84 1015.0
20260905011903 77 326 2.0 3.0 0.00 0.00 0.00 84 1015.0
20260905011801 77 314 2.0 3.0 0.00 0.00 0.00 84 1015.0
20260905011701 77 319 1.0 3.0 0.00 0.00 0.00 84 1015.0
20260905011601 77 335 1.0 3.0 0.00 0.00 0.00 84 1015.0
20260905011505 77 307 1.0 3.0 0.00 0.00 0.00 84 1015.0
20260905011302 77 319 2.0 3.0 0.00 0.00 0.00 84 1014.9
20260905011101 77 321 2.0 3.0 0.00 0.00 0.00 84 1014.9
20260905011004 77 323 1.0 3.0 0.00 0.00 0.00 84 1014.8
20260905010903 77 307 2.0 3.0 0.00 0.00 0.00 84 1014.8
20260905010803 77 342 2.0 3.0 0.00 0.00 0.00 84 1014.7
20260905010703 77 314 0.0 3.0 0.00 0.00 0.00 84 1014.7
20260905010503 77 321 2.0 3.0 0.00 0.00 0.00 84 1014.6
20260905010304 77 309 2.0 3.0 0.00 0.00 0.00 84 1014.6
20260905010202 77 282 2.0 3.0 0.00 0.00 0.00 84 1014.5
20260905010004 77 323 2.0 3.0 0.00 0.00 0.00 84 1014.6
20260905005901 77 293 2.0 3.0 0.00 0.00 0.00 84 1014.5
20260905005800 77 300 1.0 3.0 0.00 0.00 0.00 84 1014.5
20260905005600 77 289 1.0 3.0 0.00 0.00 0.00 84 1014.6
20260905005503 77 328 2.0 3.0 0.00 0.00 0.00 84 1014.5
20260905005301 77 314 2.0 3.0 0.00 0.00 0.00 84 1014.5
20260905005201 77 323 2.0 3.0 0.00 0.00 0.00 84 1014.5
20260905005101 77 295 2.0 3.0 0.00 0.00 0.00 84 1014.5
20260905005004 77 326 2.0 3.0 0.00 0.00 0.00 84 1014.6
20260905004901 77 307 2.0 3.0 0.00 0.00 0.00 84 1014.6
20260905004801 77 321 0.0 3.0 0.00 0.00 0.00 84 1014.6
20260905004700 77 303 0.0 3.0 0.00 0.00 0.00 84 1014.7
20260905004600 77 303 0.0 3.0 0.00 0.00 0.00 84 1014.8
20260905004503 77 303 1.0 3.0 0.00 0.00 0.00 84 1014.6
20260905004301 77 307 2.0 3.0 0.00 0.00 0.00 84 1014.7
20260905004200 77 316 2.0 3.0 0.00 0.00 0.00 84 1014.6
20260905004101 77 302 2.0 3.0 0.00 0.00 0.00 84 1014.7
20260905003901 77 311 2.0 3.0 0.00 0.00 0.00 84 1014.6
20260905003800 77 297 2.0 3.0 0.00 0.00 0.00 83 1014.6
20260905003601 77 307 2.0 3.0 0.00 0.00 0.00 83 1014.6
20260905003502 77 286 2.0 3.0 0.00 0.00 0.00 83 1014.7
20260905003401 77 296 2.0 3.0 0.00 0.00 0.00 83 1014.6
20260905003301 77 296 2.0 3.0 0.00 0.00 0.00 83 1014.6
20260905003202 77 294 2.0 3.0 0.00 0.00 0.00 83 1014.6
20260905003103 77 283 2.0 3.0 0.00 0.00 0.00 83 1014.6
20260905003004 77 304 2.0 3.0 0.00 0.00 0.00 83 1014.7
20260905002900 77 297 3.0 3.0 0.00 0.00 0.00 83 1014.7
20260905002800 77 284 0.0 3.0 0.00 0.00 0.00 83 1014.6
20260905002600 77 271 3.0 3.0 0.00 0.00 0.00 84 1014.6
20260905002503 77 304 2.0 3.0 0.00 0.00 0.00 83 1014.6
20260905002400 77 278 2.0 3.0 0.00 0.00 0.00 83 1014.6
20260905002300 77 293 2.0 3.0 0.00 0.00 0.00 83 1014.6
20260905002201 77 326 1.0 3.0 0.00 0.00 0.00 83 1014.5
20260905002100 77 295 2.0 3.0 0.00 0.00 0.00 83 1014.5
20260905001900 77 302 0.0 3.0 0.00 0.00 0.00 83 1014.5
20260905001801 77 323 2.0 3.0 0.00 0.00 0.00 83 1014.4
20260905001700 77 326 2.0 3.0 0.00 0.00 0.00 83 1014.4
20260905001600 77 307 1.0 3.0 0.00 0.00 0.00 83 1014.4
20260905001400 77 338 0.0 3.0 0.00 0.00 0.00 83 1014.5
20260905001301 77 309 2.0 3.0 0.00 0.00 0.00 83 1014.3
20260905001201 77 330 2.0 3.0 0.00 0.00 0.00 83 1014.4
20260905001100 77 331 2.0 3.0 0.00 0.00 0.00 83 1014.4
20260905001004 77 335 2.0 3.0 0.00 0.00 0.00 83 1014.4
20260905000901 77 314 2.0 3.0 0.00 0.00 0.00 83 1014.5
20260905000801 77 311 1.0 3.0 0.00 0.00 0.00 83 1014.4
20260905000701 77 319 0.0 2.0 0.00 0.00 0.00 83 1014.4
20260905000601 77 333 0.0 3.0 0.00 0.00 0.00 83 1014.4
20260905000503 77 333 0.0 3.0 0.00 0.00 0.00 83 1014.5
20260905000402 77 323 0.0 3.0 0.00 0.00 0.00 83 1014.5
20260905000204 77 329 0.0 3.0 0.00 0.00 0.00 83 1014.4
20260905000100 77 323 0.0 3.0 0.00 0.00 0.00 83 1014.4
20260905000004 77 360 0.0 3.0 0.00 0.00 0.00 83 1014.5
20260904235901 77 328 0.0 3.0 0.00 0.00 0.00 83 1014.5
20260904235801 77 303 2.0 3.0 0.00 0.00 0.00 83 1014.4
20260904235700 77 330 1.0 3.0 0.00 0.00 0.00 82 1014.4
20260904235503 77 342 1.0 5.0 0.00 0.00 0.00 82 1014.4
20260904235400 77 304 1.0 5.0 0.00 0.00 0.00 82 1014.3
20260904235305 77 316 2.0 5.0 0.00 0.00 0.00 82 1014.4
20260904235200 77 323 2.0 5.0 0.00 0.00 0.00 82 1014.3
20260904235101 77 302 2.0 5.0 0.00 0.00 0.00 82 1014.3
20260904234701 78 354 2.0 5.0 0.00 0.00 0.00 82 1014.2
20260904234601 78 302 0.0 3.0 0.00 0.00 0.00 82 1014.2
20260904234503 78 309 0.0 3.0 0.00 0.00 0.00 82 1014.1
20260904234302 78 307 2.0 3.0 0.00 0.00 0.00 82 1014.0
20260904234201 78 340 2.0 3.0 0.00 0.00 0.00 81 1014.1
20260904234100 78 319 0.0 3.0 0.00 0.00 0.00 81 1014.0
20260904234004 78 311 0.0 3.0 0.00 0.00 0.00 81 1014.0
20260904233900 78 338 0.0 3.0 0.00 0.00 0.00 81 1014.0
20260904233801 78 360 2.0 3.0 0.00 0.00 0.00 81 1014.0
20260904233700 78 301 1.0 3.0 0.00 0.00 0.00 81 1014.0
20260904233600 78 302 1.0 3.0 0.00 0.00 0.00 81 1014.0
20260904233503 78 338 2.0 4.0 0.00 0.00 0.00 82 1013.9
20260904233402 78 319 1.0 4.0 0.00 0.00 0.00 81 1014.0
20260904233301 78 321 0.0 4.0 0.00 0.00 0.00 81 1013.9
20260904233201 78 356 2.0 5.0 0.00 0.00 0.00 82 1014.1
20260904233100 78 304 3.0 5.0 0.00 0.00 0.00 82 1014.0
20260904233004 78 295 1.0 5.0 0.00 0.00 0.00 82 1014.1
20260904232900 78 338 2.0 5.0 0.00 0.00 0.00 82 1014.1
20260904232800 78 302 3.0 5.0 0.00 0.00 0.00 82 1014.0
20260904232702 78 311 3.0 5.0 0.00 0.00 0.00 82 1013.8
20260904232600 78 303 4.0 5.0 0.00 0.00 0.00 82 1013.9
20260904232503 78 300 2.0 5.0 0.00 0.00 0.00 82 1013.8
20260904232400 78 269 3.0 5.0 0.00 0.00 0.00 82 1013.9
20260904232200 78 359 3.0 3.0 0.00 0.00 0.00 82 1013.8
20260904232003 78 326 2.0 3.0 0.00 0.00 0.00 82 1013.8
20260904231901 78 303 2.0 3.0 0.00 0.00 0.00 82 1013.8
20260904231800 78 321 2.0 3.0 0.00 0.00 0.00 82 1013.8
20260904231700 78 293 2.0 3.0 0.00 0.00 0.00 82 1013.8
20260904231400 78 283 1.0 4.0 0.00 0.00 0.00 81 1013.9
20260904231300 78 296 1.0 4.0 0.00 0.00 0.00 81 1013.8
20260904231200 78 265 0.0 4.0 0.00 0.00 0.00 81 1013.8
20260904231101 78 347 2.0 4.0 0.00 0.00 0.00 81 1013.9
20260904231004 78 322 0.0 4.0 0.00 0.00 0.00 81 1013.7
20260904230901 78 329 0.0 4.0 0.00 0.00 0.00 81 1013.7
20260904230601 78 314 0.0 3.0 0.00 0.00 0.00 81 1013.7
20260904230503 78 296 2.0 3.0 0.00 0.00 0.00 81 1013.7
20260904230402 78 279 2.0 3.0 0.00 0.00 0.00 81 1013.7
20260904230300 78 302 0.0 3.0 0.00 0.00 0.00 81 1013.7
20260904230201 78 302 0.0 3.0 0.00 0.00 0.00 81 1013.7
20260904230006 78 347 2.0 3.0 0.00 0.00 0.00 81 1013.7
20260904225901 78 319 0.0 4.0 0.00 0.00 0.00 81 1013.6
20260904225801 78 319 0.0 4.0 0.00 0.00 0.00 81 1013.6
20260904225701 78 329 2.0 4.0 0.00 0.00 0.00 82 1013.7
20260904225601 78 324 3.0 4.0 0.00 0.00 0.00 82 1013.7
20260904225503 78 302 2.0 5.0 0.00 0.00 0.00 82 1013.6
20260904225401 78 287 2.0 5.0 0.00 0.00 0.00 82 1013.7
20260904225300 78 300 3.0 5.0 0.00 0.00 0.00 81 1013.7
20260904225202 78 316 3.0 5.0 0.00 0.00 0.00 81 1013.7
20260904225101 78 336 1.0 5.0 0.00 0.00 0.00 81 1013.7
20260904225004 78 324 4.0 5.0 0.00 0.00 0.00 81 1013.7
20260904224901 78 326 2.0 5.0 0.00 0.00 0.00 81 1013.7
20260904224802 78 321 0.0 5.0 0.00 0.00 0.00 81 1013.6
20260904224601 79 293 5.0 5.0 0.00 0.00 0.00 81 1013.7
20260904224503 79 310 2.0 4.0 0.00 0.00 0.00 81 1013.6
20260904224301 79 326 2.0 3.0 0.00 0.00 0.00 81 1013.6
20260904224201 79 297 2.0 3.0 0.00 0.00 0.00 81 1013.6
20260904224101 79 316 1.0 3.0 0.00 0.00 0.00 80 1013.6
20260904224004 79 295 2.0 3.0 0.00 0.00 0.00 80 1013.5
20260904223900 79 317 2.0 3.0 0.00 0.00 0.00 80 1013.4
20260904223800 79 302 0.0 3.0 0.00 0.00 0.00 80 1013.4
20260904223600 79 307 0.0 3.0 0.00 0.00 0.00 80 1013.4
20260904223401 79 273 3.0 3.0 0.00 0.00 0.00 80 1013.5
20260904223302 79 285 1.0 3.0 0.00 0.00 0.00 80 1013.6
20260904223201 79 257 1.0 3.0 0.00 0.00 0.00 80 1013.7
20260904222900 79 302 3.0 3.0 0.00 0.00 0.00 80 1013.7
20260904222800 79 295 2.0 3.0 0.00 0.00 0.00 80 1013.6
20260904222700 79 340 3.0 3.0 0.00 0.00 0.00 80 1013.5
20260904222602 79 328 2.0 3.0 0.00 0.00 0.00 80 1013.6
20260904222400 79 328 1.0 3.0 0.00 0.00 0.00 80 1013.5
20260904222301 79 287 2.0 3.0 0.00 0.00 0.00 80 1013.4
20260904222201 79 286 2.0 3.0 0.00 0.00 0.00 80 1013.4
20260904222101 79 287 3.0 3.0 0.00 0.00 0.00 80 1013.5
20260904222005 79 12 2.0 3.0 0.00 0.00 0.00 80 1013.5
20260904221901 79 303 3.0 3.0 0.00 0.00 0.00 79 1013.5
20260904221801 79 253 3.0 3.0 0.00 0.00 0.00 80 1013.5
20260904221700 80 151 0.0 3.0 0.00 0.00 0.00 79 1013.6
20260904221601 80 307 2.0 3.0 0.00 0.00 0.00 79 1013.7
20260904221302 80 273 1.0 4.0 0.00 0.00 0.00 79 1013.9
20260904221200 80 302 2.0 4.0 0.00 0.00 0.00 79 1013.9
20260904221100 80 305 0.0 4.0 0.00 0.00 0.00 79 1013.9
20260904221003 80 326 0.0 4.0 0.00 0.00 0.00 79 1013.9
20260904220900 80 311 1.0 4.0 0.00 0.00 0.00 79 1013.9
20260904220800 80 286 2.0 4.0 0.00 0.00 0.00 79 1013.9
20260904220701 80 262 3.0 4.0 0.00 0.00 0.00 79 1013.9
20260904220503 80 315 0.0 4.0 0.00 0.00 0.00 79 1013.9
20260904220401 80 285 2.0 4.0 0.00 0.00 0.00 79 1013.9
20260904220302 80 271 3.0 4.0 0.00 0.00 0.00 79 1013.8
20260904220201 80 297 2.0 4.0 0.00 0.00 0.00 78 1013.8
20260904220101 80 282 4.0 4.0 0.00 0.00 0.00 78 1013.8
20260904215801 80 305 0.0 4.0 0.00 0.00 0.00 78 1013.8
20260904215700 80 160 0.0 4.0 0.00 0.00 0.00 78 1013.8
20260904215601 80 163 1.0 4.0 0.00 0.00 0.00 79 1013.8
20260904215503 80 276 0.0 4.0 0.00 0.00 0.00 78 1013.8
20260904215401 80 287 0.0 4.0 0.00 0.00 0.00 79 1013.8
20260904215200 80 264 3.0 3.0 0.00 0.00 0.00 79 1013.9
20260904215004 80 162 0.0 3.0 0.00 0.00 0.00 79 1014.0
20260904214902 80 162 0.0 3.0 0.00 0.00 0.00 79 1013.9
20260904214801 80 300 0.0 4.0 0.00 0.00 0.00 79 1014.0
20260904214700 80 288 3.0 4.0 0.00 0.00 0.00 79 1013.9
20260904214601 80 302 0.0 4.0 0.00 0.00 0.00 78 1014.1
20260904214504 80 340 0.0 4.0 0.00 0.00 0.00 79 1014.2
20260904214401 80 314 0.0 4.0 0.00 0.00 0.00 79 1014.2
20260904214301 80 295 2.0 4.0 0.00 0.00 0.00 79 1014.1
20260904214200 80 352 0.0 4.0 0.00 0.00 0.00 79 1014.0
20260904214101 80 321 1.0 4.0 0.00 0.00 0.00 79 1013.9
20260904213901 80 301 2.0 4.0 0.00 0.00 0.00 79 1014.0
20260904213800 79 303 2.0 4.0 0.00 0.00 0.00 79 1013.9
20260904213700 80 310 2.0 4.0 0.00 0.00 0.00 79 1013.9
20260904213601 80 300 1.0 4.0 0.00 0.00 0.00 79 1013.8
20260904213503 80 300 1.0 4.0 0.00 0.00 0.00 79 1013.9
20260904213301 80 280 3.0 4.0 0.00 0.00 0.00 79 1013.8
20260904213201 80 286 3.0 4.0 0.00 0.00 0.00 79 1013.7
20260904213101 80 268 3.0 4.0 0.00 0.00 0.00 79 1013.7
20260904213005 80 278 3.0 4.0 0.00 0.00 0.00 79 1013.8
20260904212902 79 293 2.0 4.0 0.00 0.00 0.00 79 1013.8
20260904212701 79 302 0.0 4.0 0.00 0.00 0.00 79 1013.7
20260904212601 79 19 0.0 4.0 0.00 0.00 0.00 79 1013.7
20260904212503 79 252 0.0 4.0 0.00 0.00 0.00 79 1013.7
20260904212401 79 293 1.0 4.0 0.00 0.00 0.00 79 1013.7
20260904212301 79 289 2.0 4.0 0.00 0.00 0.00 79 1013.8
20260904212200 79 255 3.0 4.0 0.00 0.00 0.00 79 1013.8
20260904212101 79 268 3.0 4.0 0.00 0.00 0.00 79 1013.9
20260904212005 79 307 4.0 4.0 0.00 0.00 0.00 79 1014.0
20260904211900 79 293 3.0 4.0 0.00 0.00 0.00 79 1014.1
20260904211702 80 319 3.0 3.0 0.00 0.00 0.00 79 1014.2
20260904211600 80 280 2.0 3.0 0.00 0.00 0.00 78 1014.2
20260904211503 80 25 0.0 4.0 0.00 0.00 0.00 78 1014.2
20260904211401 80 153 0.0 4.0 0.00 0.00 0.00 78 1014.2
20260904211301 80 319 0.0 5.0 0.00 0.00 0.00 78 1014.0
20260904211101 80 335 2.0 5.0 0.00 0.00 0.00 78 1014.0
20260904210900 80 219 0.0 5.0 0.00 0.00 0.00 77 1014.0
20260904210801 80 269 1.0 5.0 0.00 0.00 0.00 77 1014.0
20260904210701 80 260 2.0 5.0 0.00 0.00 0.00 77 1014.0
20260904210601 80 56 2.0 5.0 0.00 0.00 0.00 77 1013.9
20260904210503 80 258 2.0 5.0 0.00 0.00 0.00 76 1013.9
20260904210202 81 288 0.0 5.0 0.00 0.00 0.00 77 1013.8
20260904210101 81 262 1.0 5.0 0.00 0.00 0.00 76 1013.7
20260904210008 81 169 0.0 5.0 0.00 0.00 0.00 76 1013.7
20260904205902 81 71 3.0 6.0 0.00 0.00 0.00 76 1013.8
20260904205804 81 179 0.0 6.0 0.00 0.00 0.00 76 1013.8
20260904205702 81 8 2.0 6.0 0.00 0.00 0.00 76 1013.7
20260904205601 81 258 2.0 6.0 0.00 0.00 0.00 76 1013.9
20260904205503 81 338 0.0 6.0 0.00 0.00 0.00 76 1014.0
20260904205305 82 121 2.0 6.0 0.00 0.00 0.00 75 1014.0
20260904205102 82 153 3.0 6.0 0.00 0.00 0.00 75 1014.1
20260904205004 82 139 2.0 4.0 0.00 0.00 0.00 75 1014.2
20260904204901 82 142 3.0 4.0 0.00 0.00 0.00 75 1014.1
20260904204802 82 122 3.0 6.0 0.00 0.00 0.00 76 1014.1
20260904204701 82 258 2.0 6.0 0.00 0.00 0.00 76 1014.1
20260904204601 82 288 0.0 6.0 0.00 0.00 0.00 76 1014.2
20260904204503 82 233 0.0 6.0 0.00 0.00 0.00 75 1014.2
20260904204401 82 239 3.0 6.0 0.00 0.00 0.00 75 1014.2
20260904204101 82 169 1.0 6.0 0.00 0.00 0.00 74 1014.3
20260904204005 83 228 0.0 6.0 0.00 0.00 0.00 74 1014.3
20260904203902 83 298 0.0 6.0 0.00 0.00 0.00 73 1014.3
20260904203802 83 33 3.0 6.0 0.00 0.00 0.00 73 1014.2
20260904203401 84 262 3.0 6.0 0.00 0.00 0.00 71 1014.2
20260904203301 84 133 4.0 6.0 0.00 0.00 0.00 71 1014.1
20260904203202 84 143 1.0 6.0 0.00 0.00 0.00 71 1014.1
20260904203103 85 360 0.0 8.0 0.00 0.00 0.00 71 1014.1
20260904203006 85 105 1.0 8.0 0.00 0.00 0.00 70 1014.0
20260904202801 85 63 0.0 8.0 0.00 0.00 0.00 70 1014.1
20260904202701 85 324 3.0 8.0 0.00 0.00 0.00 71 1014.0
20260904202602 85 273 3.0 8.0 0.00 0.00 0.00 71 1014.0
20260904202504 85 349 6.0 8.0 0.00 0.00 0.00 70 1014.1
20260904202403 85 336 0.0 8.0 0.00 0.00 0.00 69 1014.1
20260904202301 85 342 4.0 8.0 0.00 0.00 0.00 68 1014.1
20260904202203 86 11 4.0 8.0 0.00 0.00 0.00 68 1014.1
20260904202102 86 139 0.0 10.0 0.00 0.00 0.00 68 1014.0
20260904201901 87 357 2.0 10.0 0.00 0.00 0.00 67 1013.9
20260904201802 87 328 3.0 10.0 0.00 0.00 0.00 66 1013.8
20260904201702 88 279 5.0 10.0 0.00 0.00 0.00 65 1013.8
20260904201602 89 306 3.0 10.0 0.00 0.00 0.00 63 1013.8
20260904201504 90 49 4.0 10.0 0.00 0.00 0.00 62 1013.6
20260904201401 91 11 4.0 10.0 0.00 0.00 0.00 61 1013.7
20260904201301 92 26 7.0 10.0 0.00 0.00 0.00 59 1013.7
20260904201202 93 352 7.0 10.0 0.00 0.00 0.00 57 1013.7
20260904201101 93 351 5.0 10.0 0.00 0.00 0.00 56 1013.7
20260904201006 93 322 5.0 9.0 0.00 0.00 0.00 56 1013.7
20260904200902 93 8 2.0 9.0 0.00 0.00 0.00 56 1013.6
20260904200702 94 8 3.0 7.0 0.00 0.00 0.00 55 1013.6
20260904200602 94 8 4.0 7.0 0.00 0.00 0.00 54 1013.6
20260904200503 94 30 4.0 7.0 0.00 0.00 0.00 54 1013.5
20260904200402 94 347 4.0 7.0 0.00 0.00 0.00 53 1013.6
20260904200304 95 321 5.0 7.0 0.00 0.00 0.00 53 1013.6
20260904200203 95 294 3.0 7.0 0.00 0.00 0.00 53 1013.6
20260904200101 96 318 2.0 7.0 0.00 0.00 0.00 52 1013.5
20260904200007 96 354 5.0 7.0 0.00 0.00 0.00 53 1013.5
20260904195900 96 11 3.0 7.0 0.00 0.00 0.00 53 1013.4
20260904195800 95 360 5.0 7.0 0.00 0.00 0.00 54 1013.4
20260904195701 95 15 7.0 7.0 0.00 0.00 0.00 53 1013.4
20260904195601 95 348 5.0 7.0 0.00 0.00 0.00 54 1013.5
20260904195502 95 13 3.0 6.0 0.00 0.00 0.00 54 1013.5
20260904195400 95 348 6.0 6.0 0.00 0.00 0.00 54 1013.5
20260904195300 95 30 3.0 6.0 0.00 0.00 0.00 54 1013.5
20260904195200 95 351 4.0 6.0 0.00 0.00 0.00 53 1013.5
20260904195102 95 6 5.0 6.0 0.00 0.00 0.00 53 1013.5
20260904195003 94 338 5.0 6.0 0.00 0.00 0.00 54 1013.5
20260904194800 94 8 6.0 6.0 0.00 0.00 0.00 55 1013.5
20260904194701 94 355 1.0 6.0 0.00 0.00 0.00 56 1013.4
20260904194601 93 357 2.0 6.0 0.00 0.00 0.00 56 1013.5
20260904194503 93 1 4.0 6.0 0.00 0.00 0.00 55 1013.5
20260904194400 93 341 4.0 6.0 0.00 0.00 0.00 55 1013.5
20260904194301 93 287 2.0 6.0 0.00 0.00 0.00 55 1013.5
20260904194200 94 305 3.0 6.0 0.00 0.00 0.00 55 1013.5
20260904194101 94 350 3.0 5.0 0.00 0.00 0.00 55 1013.5
20260904194006 94 4 4.0 6.0 0.00 0.00 0.00 56 1013.5
20260904193900 94 352 4.0 6.0 0.00 0.00 0.00 56 1013.5
20260904193700 94 351 4.0 6.0 0.00 0.00 0.00 54 1013.5
20260904193559 94 360 4.0 6.0 0.00 0.00 0.00 55 1013.4
20260904193503 94 8 3.0 9.0 0.00 0.00 0.00 55 1013.4
20260904193400 94 337 2.0 10.0 0.00 0.00 0.00 55 1013.4
20260904193300 94 306 3.0 10.0 0.00 0.00 0.00 54 1013.4
20260904193201 94 358 5.0 10.0 0.00 0.00 0.00 53 1013.4
20260904193101 95 310 2.0 10.0 0.00 0.00 0.00 54 1013.4
20260904193005 95 15 2.0 10.0 0.00 0.00 0.00 53 1013.4
20260904192900 95 343 4.0 10.0 0.00 0.00 0.00 54 1013.3
20260904192802 95 346 5.0 10.0 0.00 0.00 0.00 54 1013.4
20260904192700 95 360 4.0 10.0 0.00 0.00 0.00 53 1013.4
20260904192601 95 338 9.0 10.0 0.00 0.00 0.00 52 1013.5
20260904192503 96 340 5.0 10.0 0.00 0.00 0.00 52 1013.5
20260904192400 96 341 5.0 9.0 0.00 0.00 0.00 53 1013.6
20260904192100 95 3 7.0 9.0 0.00 0.00 0.00 53 1013.6
20260904191900 95 355 5.0 9.0 0.00 0.00 0.00 52 1013.6
20260904191801 95 346 6.0 9.0 0.00 0.00 0.00 53 1013.6
20260904191701 95 354 5.0 8.0 0.00 0.00 0.00 53 1013.6
20260904191600 94 341 5.0 8.0 0.00 0.00 0.00 56 1013.6
20260904191503 93 6 6.0 8.0 0.00 0.00 0.00 56 1013.6
20260904191401 93 341 4.0 8.0 0.00 0.00 0.00 55 1013.7
20260904191301 94 343 5.0 8.0 0.00 0.00 0.00 55 1013.7
20260904191200 94 348 6.0 8.0 0.00 0.00 0.00 55 1013.7
20260904191101 94 354 5.0 8.0 0.00 0.00 0.00 54 1013.8
20260904191003 95 34 2.0 8.0 0.00 0.00 0.00 54 1013.8
20260904190901 95 346 4.0 8.0 0.00 0.00 0.00 54 1013.8
20260904190800 95 338 1.0 8.0 0.00 0.00 0.00 55 1013.7
20260904190701 95 33 3.0 7.0 0.00 0.00 0.00 56 1013.7
20260904190601 95 24 1.0 7.0 0.00 0.00 0.00 55 1013.7
20260904190503 95 344 5.0 7.0 0.00 0.00 0.00 56 1013.8
20260904190400 95 315 3.0 7.0 0.00 0.00 0.00 55 1013.7
20260904190201 94 27 6.0 7.0 0.00 0.00 0.00 55 1013.8
20260904190100 94 55 2.0 8.0 0.00 0.00 0.00 56 1013.8
20260904190004 93 348 5.0 9.0 0.00 0.00 0.00 57 1013.9
20260904185901 93 347 5.0 9.0 0.00 0.00 0.00 55 1014.0
20260904185800 93 345 6.0 9.0 0.00 0.00 0.00 55 1014.0
20260904185702 94 345 3.0 9.0 0.00 0.00 0.00 55 1014.1
20260904185601 94 340 4.0 9.0 0.00 0.00 0.00 53 1014.2
20260904185502 95 68 0.0 9.0 0.00 0.00 0.00 53 1014.1
20260904185400 95 348 2.0 9.0 0.00 0.00 0.00 54 1014.1
20260904185301 95 357 4.0 9.0 0.00 0.00 0.00 53 1014.1
20260904185201 95 336 4.0 9.0 0.00 0.00 0.00 53 1014.1
20260904185101 96 350 5.0 9.0 0.00 0.00 0.00 53 1014.1
20260904185005 95 360 5.0 9.0 0.00 0.00 0.00 53 1014.1
20260904184901 95 335 4.0 9.0 0.00 0.00 0.00 55 1014.0
20260904184801 95 13 6.0 10.0 0.00 0.00 0.00 54 1014.1
20260904184601 94 341 5.0 10.0 0.00 0.00 0.00 54 1014.1
20260904184503 94 324 4.0 10.0 0.00 0.00 0.00 55 1014.0
20260904184400 94 351 5.0 10.0 0.00 0.00 0.00 55 1014.1
20260904184300 94 65 3.0 10.0 0.00 0.00 0.00 55 1014.1
20260904184202 94 326 4.0 10.0 0.00 0.00 0.00 56 1014.1
20260904184059 93 356 6.0 11.0 0.00 0.00 0.00 57 1014.1
20260904184004 93 342 4.0 12.0 0.00 0.00 0.00 58 1014.1
20260904183900 92 344 5.0 12.0 0.00 0.00 0.00 57 1014.1
20260904183700 93 341 4.0 12.0 0.00 0.00 0.00 57 1014.0
20260904183600 93 343 7.0 12.0 0.00 0.00 0.00 57 1014.1
20260904183503 93 6 7.0 12.0 0.00 0.00 0.00 57 1014.1
20260904183400 93 347 4.0 12.0 0.00 0.00 0.00 57 1014.0
20260904183300 93 335 5.0 12.0 0.00 0.00 0.00 56 1014.1
20260904183200 94 345 9.0 12.0 0.00 0.00 0.00 57 1014.0
20260904183101 94 348 8.0 8.0 0.00 0.00 0.00 58 1014.0
20260904183004 93 340 6.0 8.0 0.00 0.00 0.00 58 1014.0
20260904182801 93 34 1.0 10.0 0.00 0.00 0.00 58 1014.1
20260904182700 93 6 8.0 10.0 0.00 0.00 0.00 59 1014.2
20260904182601 93 330 5.0 10.0 0.00 0.00 0.00 59 1014.2
20260904182504 92 4 6.0 10.0 0.00 0.00 0.00 60 1014.1
20260904182400 92 45 3.0 10.0 0.00 0.00 0.00 59 1014.2
20260904182301 92 344 2.0 10.0 0.00 0.00 0.00 59 1014.2
20260904182200 92 358 6.0 10.0 0.00 0.00 0.00 58 1014.1
20260904182101 92 343 5.0 10.0 0.00 0.00 0.00 58 1014.2
20260904182003 93 343 5.0 10.0 0.00 0.00 0.00 58 1014.2
20260904181900 93 343 8.0 9.0 0.00 0.00 0.00 59 1014.2
20260904181801 93 352 5.0 7.0 0.00 0.00 0.00 58 1014.2
20260904181700 93 4 5.0 7.0 0.00 0.00 0.00 59 1014.2
20260904181600 93 59 1.0 7.0 0.00 0.00 0.00 59 1014.3
20260904181401 92 1 6.0 8.0 0.00 0.00 0.00 62 1014.4
20260904181301 91 341 5.0 8.0 0.00 0.00 0.00 61 1014.4
20260904181200 91 348 4.0 8.0 0.00 0.00 0.00 61 1014.4
20260904181101 91 337 5.0 8.0 0.00 0.00 0.00 60 1014.4
20260904181004 92 8 7.0 8.0 0.00 0.00 0.00 59 1014.5
20260904180900 92 347 4.0 8.0 0.00 0.00 0.00 59 1014.5
20260904180801 92 347 5.0 8.0 0.00 0.00 0.00 61 1014.5
20260904180701 91 324 3.0 8.0 0.00 0.00 0.00 61 1014.5
20260904180503 91 343 6.0 8.0 0.00 0.00 0.00 60 1014.5
20260904180400 91 347 5.0 8.0 0.00 0.00 0.00 60 1014.6
20260904180300 92 1 2.0 8.0 0.00 0.00 0.00 61 1014.7
20260904180201 91 25 6.0 8.0 0.00 0.00 0.00 60 1014.7
20260904180100 91 360 5.0 8.0 0.00 0.00 0.00 60 1014.6
20260904180005 91 337 6.0 9.0 0.00 0.00 0.00 60 1014.7
20260904175900 92 4 2.0 9.0 0.00 0.00 0.00 59 1014.8
20260904175600 92 13 6.0 9.0 0.00 0.00 0.00 59 1015.0
20260904175502 92 355 5.0 9.0 0.00 0.00 0.00 59 1015.0
20260904175400 92 320 5.0 9.0 0.00 0.00 0.00 59 1015.0
20260904175200 92 340 6.0 9.0 0.00 0.00 0.00 59 1015.0
20260904175102 93 356 8.0 9.0 0.00 0.00 0.00 59 1015.1
20260904175004 93 26 3.0 9.0 0.00 0.00 0.00 59 1015.0
20260904174900 93 355 5.0 8.0 0.00 0.00 0.00 57 1015.0
20260904174801 94 27 2.0 8.0 0.00 0.00 0.00 57 1015.1
20260904174601 94 354 3.0 8.0 0.00 0.00 0.00 57 1015.2
20260904174503 94 328 5.0 8.0 0.00 0.00 0.00 58 1015.2
20260904174400 94 354 6.0 8.0 0.00 0.00 0.00 58 1015.1
20260904174301 94 27 5.0 8.0 0.00 0.00 0.00 58 1015.2
20260904174200 94 79 3.0 8.0 0.00 0.00 0.00 59 1015.2
20260904174102 94 360 6.0 8.0 0.00 0.00 0.00 59 1015.2
20260904173801 93 329 3.0 8.0 0.00 0.00 0.00 60 1015.2
20260904173700 93 345 3.0 8.0 0.00 0.00 0.00 61 1015.2
20260904173602 92 6 8.0 8.0 0.00 0.00 0.00 61 1015.2
20260904173504 92 71 3.0 8.0 0.00 0.00 0.00 61 1015.2
20260904173300 93 41 2.0 8.0 0.00 0.00 0.00 59 1015.2
20260904173202 93 44 6.0 8.0 0.00 0.00 0.00 62 1015.3
20260904173011 92 347 5.0 7.0 0.00 0.00 0.00 63 1015.3
20260904172900 91 25 6.0 7.0 0.00 0.00 0.00 64 1015.3
20260904172700 91 345 3.0 7.0 0.00 0.00 0.00 65 1015.4
20260904172600 90 15 3.0 7.0 0.00 0.00 0.00 65 1015.4
20260904172503 90 359 4.0 7.0 0.00 0.00 0.00 64 1015.4
20260904172402 90 333 3.0 7.0 0.00 0.00 0.00 65 1015.5
20260904172201 90 39 4.0 8.0 0.00 0.00 0.00 67 1015.4
20260904172100 89 12 3.0 8.0 0.00 0.00 0.00 66 1015.5
20260904172004 88 17 5.0 8.0 0.00 0.00 0.00 66 1015.5
20260904171900 88 41 2.0 8.0 0.00 0.00 0.00 67 1015.6
20260904171800 88 70 3.0 8.0 0.00 0.00 0.00 67 1015.5
20260904171700 88 341 3.0 8.0 0.00 0.00 0.00 68 1015.6
20260904171600 88 136 3.0 8.0 0.00 0.00 0.00 67 1015.6
20260904171503 88 8 4.0 8.0 0.00 0.00 0.00 67 1015.5
20260904171400 88 25 3.0 7.0 0.00 0.00 0.00 67 1015.7
20260904171301 88 77 4.0 6.0 0.00 0.00 0.00 67 1015.6
20260904171200 88 31 3.0 6.0 0.00 0.00 0.00 68 1015.7
20260904171100 88 355 5.0 6.0 0.00 0.00 0.00 67 1015.8
20260904171004 88 91 2.0 6.0 0.00 0.00 0.00 68 1015.8
20260904170900 88 39 3.0 5.0 0.00 0.00 0.00 68 1015.8
20260904170801 88 41 2.0 5.0 0.00 0.00 0.00 68 1015.8
20260904170701 88 13 2.0 6.0 0.00 0.00 0.00 68 1015.8
20260904170602 87 360 1.0 6.0 0.00 0.00 0.00 68 1015.8
20260904170503 88 346 0.0 6.0 0.00 0.00 0.00 68 1015.9
20260904170300 88 3 5.0 6.0 0.00 0.00 0.00 69 1016.0
20260904170159 87 26 2.0 6.0 0.00 0.00 0.00 69 1016.0
20260904170008 88 352 2.0 6.0 0.00 0.00 0.00 69 1016.1
20260904165900 88 10 4.0 6.0 0.00 0.00 0.00 68 1016.0
20260904165601 88 352 4.0 8.0 0.00 0.00 0.00 68 1016.1
20260904165300 88 41 4.0 8.0 0.00 0.00 0.00 68 1016.0
20260904165200 88 64 0.0 8.0 0.00 0.00 0.00 68 1015.9
20260904165101 88 348 4.0 8.0 0.00 0.00 0.00 68 1016.0
20260904165004 88 34 0.0 8.0 0.00 0.00 0.00 67 1016.0
20260904164900 88 32 4.0 8.0 0.00 0.00 0.00 68 1016.0
20260904164701 89 339 3.0 8.0 0.00 0.00 0.00 65 1016.1
20260904164601 89 5 3.0 8.0 0.00 0.00 0.00 66 1016.0
20260904164503 89 33 5.0 8.0 0.00 0.00 0.00 66 1016.0
20260904164300 89 6 8.0 8.0 0.00 0.00 0.00 66 1016.0
20260904164201 90 350 5.0 7.0 0.00 0.00 0.00 65 1016.0
20260904164004 90 359 4.0 7.0 0.00 0.00 0.00 66 1016.0
20260904163901 90 23 5.0 7.0 0.00 0.00 0.00 67 1015.9
20260904163801 90 10 3.0 7.0 0.00 0.00 0.00 66 1016.0
20260904163700 90 348 4.0 7.0 0.00 0.00 0.00 67 1016.0
20260904163600 90 1 4.0 7.0 0.00 0.00 0.00 67 1015.9
20260904163502 90 3 5.0 7.0 0.00 0.00 0.00 68 1016.0
20260904163400 89 348 4.0 7.0 0.00 0.00 0.00 68 1015.9
20260904163300 89 3 3.0 7.0 0.00 0.00 0.00 68 1016.0
20260904163201 88 4 4.0 7.0 0.00 0.00 0.00 68 1016.1
20260904163004 89 336 3.0 7.0 0.00 0.00 0.00 67 1016.1
20260904162900 89 19 4.0 7.0 0.00 0.00 0.00 68 1016.1
20260904162700 89 360 6.0 7.0 0.00 0.00 0.00 68 1016.2
20260904162503 89 360 3.0 7.0 0.00 0.00 0.00 67 1016.3
20260904162401 89 345 3.0 7.0 0.00 0.00 0.00 67 1016.2
20260904162300 89 24 3.0 7.0 0.00 0.00 0.00 67 1016.2
20260904162200 89 360 3.0 7.0 0.00 0.00 0.00 67 1016.2
20260904162100 89 311 2.0 7.0 0.00 0.00 0.00 66 1016.2
20260904162003 89 73 2.0 7.0 0.00 0.00 0.00 67 1016.2
20260904161801 89 39 5.0 7.0 0.00 0.00 0.00 69 1016.2
20260904161701 89 75 3.0 6.0 0.00 0.00 0.00 71 1016.2
20260904161601 88 303 0.0 6.0 0.00 0.00 0.00 71 1016.2
20260904161503 87 288 3.0 6.0 0.00 0.00 0.00 72 1016.2
20260904161400 87 335 3.0 6.0 0.00 0.00 0.00 72 1016.2
20260904161200 86 346 3.0 6.0 0.00 0.00 0.00 73 1016.3
20260904161100 86 353 5.0 6.0 0.00 0.00 0.00 73 1016.2
20260904161004 86 144 0.0 6.0 0.00 0.00 0.00 72 1016.2
20260904160901 86 34 3.0 6.0 0.00 0.00 0.00 73 1016.3
20260904160802 86 310 2.0 6.0 0.00 0.00 0.00 72 1016.3
20260904160700 86 356 2.0 6.0 0.00 0.00 0.00 72 1016.3
20260904160600 86 22 1.0 6.0 0.00 0.00 0.00 71 1016.3
20260904160503 87 113 4.0 6.0 0.00 0.00 0.00 71 1016.2
20260904160301 87 1 4.0 6.0 0.00 0.00 0.00 70 1016.3
20260904160201 87 360 2.0 6.0 0.00 0.00 0.00 71 1016.2
20260904160100 88 345 2.0 6.0 0.00 0.00 0.00 71 1016.3
20260904160006 88 75 2.0 6.0 0.00 0.00 0.00 70 1016.3
20260904155901 88 13 4.0 6.0 0.00 0.00 0.00 71 1016.2
20260904155800 87 1 4.0 6.0 0.00 0.00 0.00 73 1016.3
20260904155700 87 8 4.0 6.0 0.00 0.00 0.00 73 1016.2
20260904155600 87 4 5.0 5.0 0.00 0.00 0.00 73 1016.3
20260904155400 86 289 0.0 4.0 0.00 0.00 0.00 75 1016.4
20260904155301 85 8 3.0 4.0 0.00 0.00 0.00 75 1016.3
20260904155201 85 352 3.0 4.0 0.00 0.00 0.00 74 1016.4
20260904155100 85 33 0.0 4.0 0.00 0.00 0.00 75 1016.3
20260904155005 85 70 2.0 4.0 0.00 0.00 0.00 74 1016.3
20260904154901 85 107 3.0 5.0 0.00 0.00 0.00 74 1016.2
20260904154800 85 349 0.0 5.0 0.00 0.00 0.00 74 1016.2
20260904154702 86 111 3.0 5.0 0.00 0.00 0.00 74 1016.2
20260904154600 86 357 4.0 5.0 0.00 0.00 0.00 75 1016.2
20260904154502 85 1 4.0 5.0 0.00 0.00 0.00 75 1016.2
20260904154400 85 26 3.0 5.0 0.00 0.00 0.00 75 1016.2
20260904154301 85 324 4.0 5.0 0.00 0.00 0.00 75 1016.2
20260904154200 85 13 4.0 5.0 0.00 0.00 0.00 76 1016.2
20260904154100 85 350 4.0 5.0 0.00 0.00 0.00 76 1016.2
20260904154004 85 340 4.0 5.0 0.00 0.00 0.00 76 1016.2
20260904153800 85 263 2.0 5.0 0.00 0.00 0.00 76 1016.2
20260904153701 85 1 3.0 5.0 0.00 0.00 0.00 76 1016.2
20260904153600 85 292 1.0 6.0 0.00 0.00 0.00 76 1016.2
20260904153503 85 76 4.0 6.0 0.00 0.00 0.00 76 1016.2
20260904153400 85 8 2.0 6.0 0.00 0.00 0.00 75 1016.2
20260904153300 85 107 0.0 6.0 0.00 0.00 0.00 75 1016.2
20260904153159 85 326 0.0 6.0 0.00 0.00 0.00 74 1016.2
20260904153101 86 360 4.0 6.0 0.00 0.00 0.00 74 1016.2
20260904153003 86 360 4.0 6.0 0.00 0.00 0.00 74 1016.2
20260904152901 86 360 4.0 6.0 0.00 0.00 0.00 74 1016.2
20260904152801 86 360 4.0 6.0 0.00 0.00 0.00 74 1016.3
20260904152558 86 353 5.0 6.0 0.00 0.00 0.00 75 1016.1
20260904152459 86 352 2.0 6.0 0.00 0.00 0.00 76 1016.1
20260904152400 85 349 3.0 6.0 0.00 0.00 0.00 76 1016.1
20260904152258 85 17 4.0 6.0 0.00 0.00 0.00 75 1016.2
20260904152200 85 341 5.0 6.0 0.00 0.00 0.00 75 1016.1
20260904151858 85 335 3.0 5.0 0.00 0.00 0.00 76 1016.1
20260904151759 85 49 0.0 5.0 0.00 0.00 0.00 75 1016.1
20260904151659 86 105 3.0 5.0 0.00 0.00 0.00 75 1016.1
20260904151558 85 338 3.0 5.0 0.00 0.00 0.00 76 1016.1
20260904151059 85 8 2.0 5.0 0.00 0.00 0.00 76 1016.1
20260904151002 85 334 3.0 5.0 0.00 0.00 0.00 76 1016.2
20260904150858 84 354 0.0 6.0 0.00 0.00 0.00 76 1016.2
20260904150759 84 323 1.0 6.0 0.00 0.00 0.00 76 1016.2
20260904150700 85 73 2.0 6.0 0.00 0.00 0.00 76 1016.2
20260904150558 85 71 0.0 6.0 0.00 0.00 0.00 76 1016.1
20260904150503 84 343 3.0 6.0 0.00 0.00 0.00 76 1016.0
20260904150358 84 342 3.0 6.0 0.00 0.00 0.00 76 1016.0
20260904150258 84 322 5.0 6.0 0.00 0.00 0.00 76 1016.0
20260904150159 84 140 3.0 6.0 0.00 0.00 0.00 77 1016.0
20260904150100 84 359 4.0 6.0 0.00 0.00 0.00 77 1015.9
20260904150003 84 345 4.0 6.0 0.00 0.00 0.00 77 1016.1
20260904145858 84 353 1.0 6.0 0.00 0.00 0.00 78 1016.0
20260904145758 84 1 3.0 6.0 0.00 0.00 0.00 78 1016.0
20260904145658 84 341 3.0 4.0 0.00 0.00 0.00 78 1016.0
20260904145558 83 338 1.0 4.0 0.00 0.00 0.00 78 1016.0
20260904145500 83 91 3.0 4.0 0.00 0.00 0.00 79 1016.1
20260904145358 83 359 3.0 4.0 0.00 0.00 0.00 79 1015.9
20260904145258 83 6 2.0 4.0 0.00 0.00 0.00 79 1016.0
20260904145200 83 312 2.0 4.0 0.00 0.00 0.00 79 1016.0
20260904145059 83 289 4.0 4.0 0.00 0.00 0.00 79 1015.9
20260904144859 83 322 3.0 4.0 0.00 0.00 0.00 80 1015.9
20260904144758 83 302 2.0 4.0 0.00 0.00 0.00 79 1016.0
20260904144700 83 285 1.0 4.0 0.00 0.00 0.00 79 1016.0
20260904144459 83 310 0.0 4.0 0.00 0.00 0.00 79 1016.0
20260904144359 83 347 3.0 4.0 0.00 0.00 0.00 80 1016.0
20260904144159 83 22 4.0 4.0 0.00 0.00 0.00 81 1016.0
20260904143858 82 135 0.0 4.0 0.00 0.00 0.00 81 1016.0
20260904143800 82 33 2.0 4.0 0.00 0.00 0.00 81 1016.0
20260904143659 82 360 3.0 3.0 0.00 0.00 0.00 82 1015.9
20260904143559 81 338 0.0 3.0 0.00 0.00 0.00 82 1015.9
20260904143500 81 290 0.0 3.0 0.00 0.00 0.00 82 1016.0
20260904143359 81 149 1.0 3.0 0.00 0.00 0.00 82 1015.9
20260904143258 81 151 0.0 3.0 0.00 0.00 0.00 82 1015.9
20260904143059 81 141 1.0 3.0 0.00 0.00 0.00 81 1016.0
20260904143003 81 52 0.0 3.0 0.00 0.00 0.00 81 1016.0
20260904142859 81 249 0.0 3.0 0.00 0.00 0.00 81 1016.0
20260904142700 81 131 0.0 4.0 0.00 0.00 0.00 81 1015.9
20260904142559 82 338 0.0 4.0 0.00 0.00 0.00 81 1015.9
20260904142500 82 130 0.0 4.0 0.00 0.00 0.00 81 1015.9
20260904142358 82 130 1.0 4.0 0.00 0.00 0.00 81 1015.8
20260904142259 82 276 1.0 4.0 0.00 0.00 0.00 81 1015.8
20260904142159 82 291 3.0 4.0 0.00 0.00 0.00 82 1015.7
20260904141759 81 246 0.0 3.0 0.00 0.00 0.00 83 1015.8
20260904141559 81 269 0.0 3.0 0.00 0.00 0.00 83 1015.8
20260904141501 81 198 0.0 3.0 0.00 0.00 0.00 83 1015.7
20260904141358 80 128 0.0 3.0 0.00 0.00 0.00 83 1015.8
20260904141258 80 304 0.0 3.0 0.00 0.00 0.00 83 1015.8
20260904141158 80 233 0.0 3.0 0.00 0.00 0.00 83 1015.7
20260904141058 80 340 1.0 3.0 0.00 0.00 0.00 82 1015.7
20260904141003 81 155 0.0 3.0 0.00 0.00 0.00 83 1015.8
20260904140858 81 286 0.0 3.0 0.00 0.00 0.00 82 1015.7
20260904140759 81 143 0.0 3.0 0.00 0.00 0.00 82 1015.7
20260904140658 81 169 0.0 3.0 0.00 0.00 0.00 82 1015.8
20260904140559 81 239 1.0 3.0 0.00 0.00 0.00 82 1015.8
20260904140500 81 209 2.0 3.0 0.00 0.00 0.00 83 1015.8
20260904140358 81 249 0.0 3.0 0.00 0.00 0.00 83 1015.8
20260904140258 81 230 2.0 3.0 0.00 0.00 0.00 83 1015.7
20260904140159 81 160 0.0 2.0 0.00 0.00 0.00 83 1015.6
20260904140059 81 277 1.0 2.0 0.00 0.00 0.00 83 1015.7
20260904140004 81 41 0.0 3.0 0.00 0.00 0.00 83 1015.7
20260904135858 81 266 0.0 3.0 0.00 0.00 0.00 83 1015.7
20260904135758 81 270 0.0 3.0 0.00 0.00 0.00 83 1015.7
20260904135501 81 190 0.0 3.0 0.00 0.00 0.00 82 1015.8
20260904135359 81 295 0.0 3.0 0.00 0.00 0.00 83 1015.8
20260904135301 81 153 0.0 3.0 0.00 0.00 0.00 82 1015.7
20260904135159 81 181 0.0 3.0 0.00 0.00 0.00 83 1015.8
20260904135058 81 263 3.0 3.0 0.00 0.00 0.00 83 1015.7
20260904135003 81 116 0.0 3.0 0.00 0.00 0.00 82 1015.8
20260904134859 81 179 0.0 3.0 0.00 0.00 0.00 83 1015.8
20260904134758 81 94 0.0 3.0 0.00 0.00 0.00 83 1015.8
20260904134500 81 135 0.0 4.0 0.00 0.00 0.00 83 1015.7
20260904134358 80 307 0.0 4.0 0.00 0.00 0.00 84 1015.7
20260904134258 80 19 0.0 4.0 0.00 0.00 0.00 84 1015.8
20260904134159 80 4 2.0 4.0 0.00 0.00 0.00 84 1015.8
20260904134058 80 146 0.0 4.0 0.00 0.00 0.00 84 1015.8
20260904133658 80 124 2.0 4.0 0.00 0.00 0.00 84 1015.8
20260904133558 80 265 0.0 3.0 0.00 0.00 0.00 85 1015.7
20260904133500 80 287 0.0 3.0 0.00 0.00 0.00 85 1015.7
20260904133358 79 300 3.0 3.0 0.00 0.00 0.00 85 1015.6
20260904133258 79 295 0.0 3.0 0.00 0.00 0.00 85 1015.7
20260904133159 79 233 0.0 3.0 0.00 0.00 0.00 84 1015.6
20260904133058 79 233 0.0 3.0 0.00 0.00 0.00 84 1015.7
20260904132858 79 303 2.0 3.0 0.00 0.00 0.00 84 1015.7
20260904132759 79 160 3.0 3.0 0.00 0.00 0.00 84 1015.7
20260904132658 79 288 0.0 3.0 0.00 0.00 0.00 84 1015.7
20260904132501 79 251 0.0 3.0 0.00 0.00 0.00 84 1015.6
20260904132358 79 179 0.0 4.0 0.00 0.00 0.00 84 1015.7
20260904132259 80 160 1.0 4.0 0.00 0.00 0.00 84 1015.6
20260904132100 80 167 0.0 4.0 0.00 0.00 0.00 85 1015.6
20260904132003 80 273 1.0 4.0 0.00 0.00 0.00 85 1015.6
20260904131859 79 246 0.0 4.0 0.00 0.00 0.00 85 1015.7
20260904131758 79 354 2.0 4.0 0.00 0.00 0.00 85 1015.6
20260904131658 79 345 0.0 4.0 0.00 0.00 0.00 85 1015.6
20260904131559 79 245 0.0 4.0 0.00 0.00 0.00 85 1015.6
20260904131500 79 155 0.0 4.0 0.00 0.00 0.00 85 1015.7
20260904131358 79 116 0.0 4.0 0.00 0.00 0.00 85 1015.6
20260904131259 79 256 0.0 4.0 0.00 0.00 0.00 85 1015.6
20260904131158 79 214 2.0 4.0 0.00 0.00 0.00 85 1015.7
20260904131058 79 160 3.0 3.0 0.00 0.00 0.00 85 1015.7
20260904131002 79 275 0.0 3.0 0.00 0.00 0.00 86 1015.7
20260904130858 79 214 0.0 3.0 0.00 0.00 0.00 85 1015.7
20260904130800 79 214 0.0 3.0 0.00 0.00 0.00 86 1015.7
20260904130559 79 167 0.0 3.0 0.00 0.00 0.00 86 1015.6
20260904130501 79 239 3.0 3.0 0.00 0.00 0.00 86 1015.6
20260904130358 79 163 0.0 3.0 0.00 0.00 0.00 86 1015.6
20260904130258 79 296 2.0 3.0 0.00 0.00 0.00 86 1015.7
20260904130159 79 71 2.0 3.0 0.00 0.00 0.00 85 1015.6
20260904130059 79 165 0.0 3.0 0.00 0.00 0.00 86 1015.6
20260904130003 79 167 0.0 3.0 0.00 0.00 0.00 86 1015.7
20260904125857 79 243 1.0 3.0 0.00 0.00 0.00 86 1015.5
20260904125758 79 176 0.0 3.0 0.00 0.00 0.00 86 1015.6
20260904125657 79 300 1.0 3.0 0.00 0.00 0.00 86 1015.6
20260904125356 79 295 0.0 3.0 0.00 0.00 0.00 86 1015.6
20260904125257 79 312 0.0 3.0 0.00 0.00 0.00 86 1015.5
20260904125158 79 293 0.0 3.0 0.00 0.00 0.00 86 1015.5
20260904125058 79 134 0.0 4.0 0.00 0.00 0.00 86 1015.5
20260904124857 79 283 0.0 4.0 0.00 0.00 0.00 87 1015.5
20260904124757 79 169 0.0 4.0 0.00 0.00 0.00 87 1015.5
20260904124658 79 188 0.0 4.0 0.00 0.00 0.00 87 1015.5
20260904124558 79 248 0.0 4.0 0.00 0.00 0.00 87 1015.5
20260904124459 79 295 1.0 4.0 0.00 0.00 0.00 87 1015.4
20260904124357 78 345 1.0 4.0 0.00 0.00 0.00 87 1015.4
20260904124257 78 158 2.0 4.0 0.00 0.00 0.00 87 1015.4
20260904124157 78 217 1.0 4.0 0.00 0.00 0.00 87 1015.4
20260904124057 78 270 2.0 3.0 0.00 0.00 0.00 87 1015.3
20260904124000 78 287 0.0 3.0 0.00 0.00 0.00 87 1015.3
20260904123857 78 288 3.0 3.0 0.00 0.00 0.00 87 1015.2
20260904123757 78 296 1.0 3.0 0.00 0.00 0.00 87 1015.3
20260904123657 78 59 0.0 3.0 0.00 0.00 0.00 88 1015.3
20260904123458 78 309 0.0 3.0 0.00 0.00 0.00 88 1015.3
20260904123357 78 303 0.0 3.0 0.00 0.00 0.00 88 1015.3
20260904123158 78 302 0.0 4.0 0.00 0.00 0.00 88 1015.3
20260904123057 78 360 1.0 4.0 0.00 0.00 0.00 88 1015.4
20260904122959 78 295 0.0 4.0 0.00 0.00 0.00 88 1015.3
20260904122858 78 336 2.0 4.0 0.00 0.00 0.00 88 1015.3
20260904122758 78 326 3.0 4.0 0.00 0.00 0.00 88 1015.2
20260904122657 78 309 3.0 4.0 0.00 0.00 0.00 88 1015.2
20260904122557 78 360 0.0 4.0 0.00 0.00 0.00 88 1015.2
20260904122356 78 244 1.0 4.0 0.00 0.00 0.00 88 1015.2
20260904122157 78 328 3.0 4.0 0.00 0.00 0.00 88 1015.2
20260904122058 78 302 0.0 4.0 0.00 0.00 0.00 88 1015.3
20260904121859 78 338 2.0 4.0 0.00 0.00 0.00 88 1015.3
20260904121758 78 307 2.0 4.0 0.00 0.00 0.00 88 1015.4
20260904121557 78 25 3.0 4.0 0.00 0.00 0.00 88 1015.4
20260904121459 78 25 0.0 4.0 0.00 0.00 0.00 88 1015.3
20260904121357 78 360 1.0 4.0 0.00 0.00 0.00 88 1015.2
20260904121258 78 125 2.0 4.0 0.00 0.00 0.00 88 1015.3
20260904121158 78 300 0.0 4.0 0.00 0.00 0.00 88 1015.3
20260904121057 77 8 3.0 4.0 0.00 0.00 0.00 88 1015.2
20260904121000 77 323 0.0 4.0 0.00 0.00 0.00 88 1015.3
20260904120857 77 114 3.0 3.0 0.00 0.00 0.00 88 1015.2
20260904120657 77 5 2.0 3.0 0.00 0.00 0.00 88 1015.2
20260904120558 77 310 0.0 3.0 0.00 0.00 0.00 88 1015.2
20260904120357 77 342 2.0 4.0 0.00 0.00 0.00 88 1015.2
20260904120257 77 333 2.0 4.0 0.00 0.00 0.00 88 1015.3
20260904120058 77 319 2.0 4.0 0.00 0.00 0.00 88 1015.3
20260904120003 77 342 0.0 4.0 0.00 0.00 0.00 88 1015.3
20260904115858 77 55 0.0 4.0 0.00 0.00 0.00 88 1015.4
20260904115658 77 317 2.0 4.0 0.00 0.00 0.00 88 1015.4
20260904115558 77 300 2.0 4.0 0.00 0.00 0.00 88 1015.3
20260904115358 77 342 2.0 4.0 0.00 0.00 0.00 88 1015.3
20260904115259 77 8 3.0 4.0 0.00 0.00 0.00 88 1015.3
20260904115157 77 302 0.0 4.0 0.00 0.00 0.00 88 1015.3
20260904115058 77 33 2.0 4.0 0.00 0.00 0.00 88 1015.3
20260904115002 77 20 0.0 3.0 0.00 0.00 0.00 88 1015.2
20260904114900 77 342 3.0 3.0 0.00 0.00 0.00 88 1015.1
20260904114759 77 68 0.0 3.0 0.00 0.00 0.00 88 1015.1
20260904114658 77 1 0.0 3.0 0.00 0.00 0.00 88 1015.1
20260904114558 77 57 0.0 3.0 0.00 0.00 0.00 88 1015.2
20260904114459 77 331 1.0 3.0 0.00 0.00 0.00 88 1015.1
20260904114357 77 337 2.0 3.0 0.00 0.00 0.00 88 1015.0
20260904114259 77 319 0.0 3.0 0.00 0.00 0.00 88 1015.0
20260904114158 77 319 2.0 4.0 0.00 0.00 0.00 88 1014.9
20260904114000 77 335 2.0 4.0 0.00 0.00 0.00 88 1014.9
20260904113759 77 331 2.0 4.0 0.00 0.00 0.00 88 1014.8
20260904113559 77 109 0.0 4.0 0.00 0.00 0.00 88 1014.8
20260904113459 77 316 1.0 4.0 0.00 0.00 0.00 88 1014.9
20260904113358 77 316 2.0 4.0 0.00 0.00 0.00 88 1014.8
20260904113258 77 326 0.0 4.0 0.00 0.00 0.00 88 1014.8
20260904113158 77 340 1.0 4.0 0.00 0.00 0.00 88 1014.7
20260904112858 77 299 0.0 4.0 0.00 0.00 0.00 88 1014.8
20260904112758 77 321 2.0 4.0 0.00 0.00 0.00 88 1014.8
20260904112659 77 330 1.0 4.0 0.00 0.00 0.00 88 1014.7
20260904112600 77 305 2.0 4.0 0.00 0.00 0.00 88 1014.7
20260904112358 77 343 2.0 4.0 0.00 0.00 0.00 88 1014.8
20260904112300 77 321 2.0 4.0 0.00 0.00 0.00 88 1014.8
20260904112058 77 356 3.0 4.0 0.00 0.00 0.00 88 1014.7
20260904112003 77 358 3.0 4.0 0.00 0.00 0.00 88 1014.7
20260904111859 77 356 3.0 4.0 0.00 0.00 0.00 88 1014.6
20260904111759 77 359 1.0 4.0 0.00 0.00 0.00 88 1014.7
20260904111700 77 296 1.0 4.0 0.00 0.00 0.00 88 1014.7
20260904111559 77 41 0.0 4.0 0.00 0.00 0.00 88 1014.7
20260904111502 77 342 1.0 4.0 0.00 0.00 0.00 88 1014.7
20260904111359 77 335 1.0 4.0 0.00 0.00 0.00 88 1014.7
20260904111259 77 113 4.0 4.0 0.00 0.00 0.00 88 1014.7
20260904111158 77 8 1.0 3.0 0.00 0.00 0.00 88 1014.7
20260904111058 77 296 0.0 3.0 0.00 0.00 0.00 88 1014.7
20260904111002 77 316 3.0 4.0 0.00 0.00 0.00 88 1014.6
20260904110858 77 335 1.0 4.0 0.00 0.00 0.00 88 1014.7
20260904110558 77 330 0.0 4.0 0.00 0.00 0.00 88 1014.6
20260904110500 77 270 0.0 4.0 0.00 0.00 0.00 88 1014.6
20260904110358 77 349 1.0 4.0 0.00 0.00 0.00 88 1014.7
20260904110259 77 340 2.0 4.0 0.00 0.00 0.00 88 1014.7
20260904110158 77 358 2.0 4.0 0.00 0.00 0.00 88 1014.7
20260904110058 77 1 3.0 4.0 0.00 0.00 0.00 88 1014.7
20260904105959 77 316 0.0 4.0 0.00 0.00 0.00 88 1014.6
20260904105857 77 336 2.0 4.0 0.00 0.00 0.00 88 1014.6
20260904105757 77 309 0.0 4.0 0.00 0.00 0.00 88 1014.6
20260904105558 77 342 1.0 4.0 0.00 0.00 0.00 88 1014.6
20260904105500 77 296 3.0 4.0 0.00 0.00 0.00 88 1014.6
20260904105357 77 132 0.0 3.0 0.00 0.00 0.00 88 1014.6
20260904105257 77 184 0.0 3.0 0.00 0.00 0.00 88 1014.6
20260904105158 77 157 2.0 3.0 0.00 0.00 0.00 88 1014.6
20260904105057 77 17 0.0 4.0 0.00 0.00 0.00 88 1014.6
20260904105000 77 316 0.0 4.0 0.00 0.00 0.00 88 1014.6
20260904104857 77 307 2.0 4.0 0.00 0.00 0.00 88 1014.6
20260904104757 77 44 1.0 4.0 0.00 0.00 0.00 88 1014.6
20260904104657 77 354 1.0 4.0 0.00 0.00 0.00 88 1014.6
20260904104458 77 58 2.0 4.0 0.00 0.00 0.00 88 1014.6
20260904104157 77 338 1.0 4.0 0.00 0.00 0.00 88 1014.7
20260904104057 77 302 2.0 4.0 0.00 0.00 0.00 88 1014.7
20260904104000 77 132 0.0 4.0 0.00 0.00 0.00 88 1014.7
20260904103857 77 337 1.0 4.0 0.00 0.00 0.00 88 1014.7
20260904103757 77 34 1.0 4.0 0.00 0.00 0.00 88 1014.8
20260904103657 77 333 2.0 4.0 0.00 0.00 0.00 88 1014.8
20260904103558 77 321 2.0 4.0 0.00 0.00 0.00 88 1014.7
20260904103459 77 321 2.0 4.0 0.00 0.00 0.00 88 1014.8
20260904103357 77 330 2.0 4.0 0.00 0.00 0.00 88 1014.6
20260904103257 77 342 0.0 4.0 0.00 0.00 0.00 88 1014.6
20260904103057 77 10 0.0 3.0 0.00 0.00 0.00 87 1014.7
20260904103000 77 338 2.0 3.0 0.00 0.00 0.00 87 1014.6
20260904102858 77 344 2.0 3.0 0.00 0.00 0.00 87 1014.7
20260904102756 77 186 1.0 3.0 0.00 0.00 0.00 87 1014.7
20260904102657 77 143 1.0 3.0 0.00 0.00 0.00 87 1014.7
20260904102557 77 345 2.0 3.0 0.00 0.00 0.00 87 1014.7
20260904102459 77 342 2.0 3.0 0.00 0.00 0.00 87 1014.7
20260904102358 77 329 2.0 3.0 0.00 0.00 0.00 87 1014.6
20260904102258 77 323 2.0 3.0 0.00 0.00 0.00 87 1014.6
20260904102157 77 290 2.0 3.0 0.00 0.00 0.00 87 1014.5
20260904102000 77 335 1.0 3.0 0.00 0.00 0.00 87 1014.6
20260904101857 77 333 2.0 3.0 0.00 0.00 0.00 87 1014.5
20260904101757 77 316 2.0 3.0 0.00 0.00 0.00 87 1014.5
20260904101657 77 345 2.0 3.0 0.00 0.00 0.00 87 1014.5
20260904101557 77 319 1.0 3.0 0.00 0.00 0.00 87 1014.5
20260904101500 77 326 0.0 3.0 0.00 0.00 0.00 87 1014.5
20260904101257 77 344 2.0 3.0 0.00 0.00 0.00 87 1014.5
20260904101057 77 321 2.0 3.0 0.00 0.00 0.00 87 1014.5
20260904101000 77 307 0.0 3.0 0.00 0.00 0.00 87 1014.4
20260904100858 77 309 2.0 3.0 0.00 0.00 0.00 87 1014.5
20260904100658 77 349 2.0 3.0 0.00 0.00 0.00 87 1014.4
20260904100557 77 321 3.0 3.0 0.00 0.00 0.00 87 1014.4
20260904100458 77 316 2.0 3.0 0.00 0.00 0.00 87 1014.4
20260904100358 77 328 2.0 3.0 0.00 0.00 0.00 87 1014.4
20260904100258 77 349 2.0 3.0 0.00 0.00 0.00 87 1014.4
20260904100157 77 326 2.0 3.0 0.00 0.00 0.00 87 1014.4
20260904100003 77 314 3.0 3.0 0.00 0.00 0.00 87 1014.4
20260904095858 77 321 1.0 3.0 0.00 0.00 0.00 87 1014.4
20260904095657 77 273 0.0 3.0 0.00 0.00 0.00 87 1014.4
20260904095557 77 281 1.0 3.0 0.00 0.00 0.00 87 1014.4
20260904095458 77 324 2.0 4.0 0.00 0.00 0.00 87 1014.4
20260904095358 77 323 2.0 4.0 0.00 0.00 0.00 87 1014.4
20260904095257 77 314 3.0 4.0 0.00 0.00 0.00 87 1014.4
20260904095157 77 342 1.0 4.0 0.00 0.00 0.00 87 1014.3
20260904095058 77 336 2.0 4.0 0.00 0.00 0.00 87 1014.4
20260904094857 77 335 1.0 4.0 0.00 0.00 0.00 87 1014.4
20260904094757 77 356 3.0 4.0 0.00 0.00 0.00 87 1014.4
20260904094557 77 342 2.0 3.0 0.00 0.00 0.00 87 1014.5
20260904094459 77 352 2.0 3.0 0.00 0.00 0.00 87 1014.5
20260904094357 77 328 2.0 3.0 0.00 0.00 0.00 87 1014.6
20260904094257 77 335 2.0 3.0 0.00 0.00 0.00 87 1014.6
20260904094158 77 323 2.0 3.0 0.00 0.00 0.00 87 1014.6
20260904094057 77 347 1.0 3.0 0.00 0.00 0.00 87 1014.5
20260904094000 77 331 3.0 3.0 0.00 0.00 0.00 87 1014.6
20260904093857 77 309 2.0 3.0 0.00 0.00 0.00 87 1014.5
20260904093757 77 329 2.0 3.0 0.00 0.00 0.00 87 1014.5
20260904093658 77 342 2.0 3.0 0.00 0.00 0.00 87 1014.5
20260904093357 77 303 1.0 3.0 0.00 0.00 0.00 87 1014.5
20260904093256 77 300 0.0 3.0 0.00 0.00 0.00 87 1014.5
20260904093157 77 310 0.0 3.0 0.00 0.00 0.00 87 1014.5
20260904092959 77 349 2.0 3.0 0.00 0.00 0.00 87 1014.5
20260904092858 77 316 0.0 3.0 0.00 0.00 0.00 87 1014.5
20260904092757 77 356 2.0 3.0 0.00 0.00 0.00 87 1014.5
20260904092557 77 330 1.0 3.0 0.00 0.00 0.00 87 1014.5
20260904092458 77 330 2.0 3.0 0.00 0.00 0.00 87 1014.4
20260904092357 77 310 1.0 3.0 0.00 0.00 0.00 87 1014.5
20260904092257 77 349 3.0 3.0 0.00 0.00 0.00 87 1014.4
20260904092156 77 303 2.0 3.0 0.00 0.00 0.00 87 1014.4
20260904092057 77 340 2.0 3.0 0.00 0.00 0.00 87 1014.5
20260904091858 77 316 1.0 3.0 0.00 0.00 0.00 87 1014.4
20260904091758 77 333 3.0 3.0 0.00 0.00 0.00 87 1014.5
20260904091657 77 321 2.0 3.0 0.00 0.00 0.00 87 1014.4
20260904091556 77 328 2.0 3.0 0.00 0.00 0.00 87 1014.4
20260904091458 78 321 2.0 3.0 0.00 0.00 0.00 87 1014.4
20260904091358 78 321 2.0 3.0 0.00 0.00 0.00 87 1014.4
20260904091258 78 298 0.0 3.0 0.00 0.00 0.00 87 1014.4
20260904091157 77 282 2.0 3.0 0.00 0.00 0.00 87 1014.4
20260904091057 77 319 0.0 3.0 0.00 0.00 0.00 87 1014.3
20260904090857 77 323 1.0 3.0 0.00 0.00 0.00 86 1014.3
20260904090758 77 264 2.0 3.0 0.00 0.00 0.00 86 1014.2
20260904090657 78 286 3.0 3.0 0.00 0.00 0.00 86 1014.2
20260904090558 78 295 2.0 3.0 0.00 0.00 0.00 86 1014.2
20260904090458 78 314 2.0 3.0 0.00 0.00 0.00 86 1014.1
20260904090356 78 309 2.0 3.0 0.00 0.00 0.00 86 1014.2
20260904090257 78 316 2.0 3.0 0.00 0.00 0.00 86 1014.2
20260904090057 78 333 2.0 3.0 0.00 0.00 0.00 86 1014.2
20260904090002 77 310 2.0 3.0 0.00 0.00 0.00 86 1014.2
20260904085857 77 330 2.0 3.0 0.00 0.00 0.00 86 1014.2
20260904085757 78 333 0.0 2.0 0.00 0.00 0.00 86 1014.1
20260904085657 78 340 1.0 2.0 0.00 0.00 0.00 86 1014.2
20260904085557 78 340 2.0 2.0 0.00 0.00 0.00 86 1014.2
20260904085458 78 342 1.0 2.0 0.00 0.00 0.00 86 1014.2
20260904085357 78 326 1.0 2.0 0.00 0.00 0.00 86 1014.3
20260904085257 78 309 1.0 2.0 0.00 0.00 0.00 86 1014.3
20260904085158 78 326 0.0 2.0 0.00 0.00 0.00 86 1014.3
20260904085000 78 340 2.0 2.0 0.00 0.00 0.00 86 1014.4
20260904084858 78 319 2.0 3.0 0.00 0.00 0.00 86 1014.4
20260904084758 78 335 1.0 3.0 0.00 0.00 0.00 86 1014.3
20260904084657 78 310 2.0 3.0 0.00 0.00 0.00 86 1014.4
20260904084558 78 333 0.0 3.0 0.00 0.00 0.00 86 1014.4
20260904084459 78 330 1.0 3.0 0.00 0.00 0.00 86 1014.3
20260904084357 78 329 2.0 3.0 0.00 0.00 0.00 86 1014.3
20260904084257 78 326 1.0 3.0 0.00 0.00 0.00 86 1014.2
20260904084056 78 324 2.0 3.0 0.00 0.00 0.00 86 1014.3
20260904084000 78 338 2.0 3.0 0.00 0.00 0.00 86 1014.2
20260904083857 78 298 2.0 3.0 0.00 0.00 0.00 86 1014.2
20260904083757 78 321 2.0 3.0 0.00 0.00 0.00 86 1014.2
20260904083658 78 316 1.0 3.0 0.00 0.00 0.00 86 1014.2
20260904083557 78 285 3.0 3.0 0.00 0.00 0.00 86 1014.2
20260904083459 78 278 3.0 3.0 0.00 0.00 0.00 86 1014.3
20260904083358 78 286 2.0 3.0 0.00 0.00 0.00 86 1014.2
20260904083257 78 303 1.0 3.0 0.00 0.00 0.00 86 1014.2
20260904083157 78 296 0.0 3.0 0.00 0.00 0.00 86 1014.2
20260904083058 78 309 1.0 3.0 0.00 0.00 0.00 86 1014.1
20260904083000 78 331 2.0 3.0 0.00 0.00 0.00 86 1014.2
20260904082857 78 328 2.0 3.0 0.00 0.00 0.00 86 1014.2
20260904082758 78 317 2.0 3.0 0.00 0.00 0.00 86 1014.1
20260904082657 78 314 2.0 3.0 0.00 0.00 0.00 86 1014.1
20260904082557 78 311 2.0 3.0 0.00 0.00 0.00 86 1014.1
20260904082457 78 314 1.0 3.0 0.00 0.00 0.00 86 1014.1
20260904082357 78 314 2.0 3.0 0.00 0.00 0.00 86 1013.9
20260904082257 78 297 2.0 3.0 0.00 0.00 0.00 86 1014.0
20260904081858 78 316 2.0 2.0 0.00 0.00 0.00 86 1013.9
20260904081758 78 319 2.0 2.0 0.00 0.00 0.00 86 1014.0
20260904081658 78 331 2.0 2.0 0.00 0.00 0.00 86 1014.0
20260904081557 78 321 0.0 2.0 0.00 0.00 0.00 86 1014.0
20260904081459 78 316 2.0 2.0 0.00 0.00 0.00 86 1014.0
20260904081358 78 319 2.0 2.0 0.00 0.00 0.00 86 1014.0
20260904081257 78 314 2.0 2.0 0.00 0.00 0.00 86 1014.0
20260904081057 78 303 0.0 2.0 0.00 0.00 0.00 86 1014.0
20260904080857 78 321 0.0 2.0 0.00 0.00 0.00 86 1014.0
20260904080756 78 314 1.0 2.0 0.00 0.00 0.00 86 1014.1
20260904080657 78 302 1.0 2.0 0.00 0.00 0.00 86 1014.1
20260904080557 78 298 0.0 2.0 0.00 0.00 0.00 86 1014.1
20260904080458 78 293 2.0 2.0 0.00 0.00 0.00 85 1014.1
20260904080358 78 287 0.0 2.0 0.00 0.00 0.00 86 1014.2
20260904080258 78 314 2.0 2.0 0.00 0.00 0.00 85 1014.1
20260904080157 78 309 2.0 2.0 0.00 0.00 0.00 85 1014.1
20260904080057 78 360 2.0 2.0 0.00 0.00 0.00 85 1014.1
20260904080002 78 314 2.0 2.0 0.00 0.00 0.00 85 1014.1
20260904075857 78 300 1.0 2.0 0.00 0.00 0.00 85 1014.1
20260904075757 78 301 0.0 2.0 0.00 0.00 0.00 85 1014.1
20260904075657 78 311 0.0 2.0 0.00 0.00 0.00 85 1014.1
20260904075557 78 316 0.0 2.0 0.00 0.00 0.00 85 1014.1
20260904075459 78 304 0.0 2.0 0.00 0.00 0.00 85 1014.1
20260904075357 78 323 0.0 2.0 0.00 0.00 0.00 85 1014.1
20260904075257 78 307 2.0 2.0 0.00 0.00 0.00 85 1014.0
20260904075157 78 319 1.0 3.0 0.00 0.00 0.00 85 1014.1
20260904075057 78 312 2.0 3.0 0.00 0.00 0.00 85 1014.1
20260904075000 78 316 2.0 3.0 0.00 0.00 0.00 85 1014.1
20260904074658 78 302 2.0 3.0 0.00 0.00 0.00 85 1014.1
20260904074557 78 307 2.0 3.0 0.00 0.00 0.00 85 1014.1
20260904074500 78 312 2.0 3.0 0.00 0.00 0.00 85 1014.1
20260904074357 78 333 0.0 3.0 0.00 0.00 0.00 85 1014.1
20260904074258 78 300 2.0 3.0 0.00 0.00 0.00 85 1014.0
20260904074157 79 319 2.0 3.0 0.00 0.00 0.00 85 1014.1
20260904074057 78 314 2.0 3.0 0.00 0.00 0.00 85 1014.0